                ,  0.301,  0.397,  0.494,  0.590,  0.687,  0.784,  0.880,  0.977,  1.073,  1.170,  1.267,  1.363,  1.460,  1.556,  1.653,  1.749,  1.846,  1.943,  2.039,  2.136,  2.232,  2.329,  2.426,  2.522,  2.619,  2.715,  2.812,  2.909,  3.005,  3.102,  3.198,  3.295,  3.392,  3.488,  3.585,  3.681,  3.778,  3.875,  3.971,  4.068,  4.164,  4.261,  4.357,  4.454,  4.551,  4.647,  4.744,  4.840,  4.937,  5.034,  5.130,  5.227,  5.323,  5.420,  5.517,  5.613,  5.710,  5.806,  5.903,  6.000,  6.096,  6.193,  6.289,  6.386,  6.483,  6.579,  6.676,  6.772,  6.869,  6.965,  7.062,  7.159,  7.255,  7.352,  7.448,  7.545,  7.642,  7.738,  7.835,  7.931
2016/12/27 00:00,  999.0,  999.0,    3.4,    1.7,  999.0,  999.0,  999.0,  999.0,  999.0,  999.0,  999.0,  999.0,    7.0,    7.7,    8.1,    9.4,   12.4,   11.3,   15.4,   15.0,  999.0,  999.0,  999.0,  999.0,  999.0,  999.0,  999.0,  999.0,  999.0,  999.0,  999.0,  999.0,  999.0,  999.0,  999.0,  999.0,  999.0,  999.0,  999.0,  999.0,  999.0,  999.0,  999.0,    0.2,   -0.3,    0.1,  999.0,   -0.2,   -0.1,   -0.0,   -0.1,    0.4,    0.2,  999.0,    0.3,    0.2,    0.3,  999.0,    0.1,    0.2,   -0.2,  999.0,  999.0,   -0.4,   -0.3,   -0.6,  999.0,  999.0,  999.0,  999.0,  999.0,  999.0,  999.0,  999.0,  999.0,  999.0,  999.0,  999.0,  999.0,  999.0
2016/12/27 00:10,  999.0,    2.5,    3.4,    2.4,  999.0,  999.0,    1.9,  999.0,  999.0,  999.0,  999.0,    6.7,    7.5,    7.6,    9.0,  999.0,  999.0,  999.0,  999.0,  999.0,  999.0,  999.0,  999.0,  999.0,  999.0,  999.0,  999.0,  999.0,  999.0,  999.0,  999.0,  999.0,  999.0,  999.0,  999.0,  999.0,  999.0,  999.0,  999.0,  999.0,  999.0,  999.0,  999.0,  999.0,   -0.2,    0.2,  999.0,   -0.1,   -0.1,   -0.3,   -0.1,  999.0,    0.3,   -0.6,   -0.1,   -0.4,    0.0,   -0.0,   -0.0,  999.0,   -0.1,   -0.1,    0.1,   -0.0,    0.1,   -0.0,  999.0,  999.0,  999.0,  999.0,  999.0,  999.0,  999.0,  999.0,  999.0,  999.0,  999.0,  999.0,  999.0,  999.0
2016/12/27 00:20,  999.0,    2.8,    3.1,  999.0,  999.0,    0.5,  999.0,  999.0,  999.0,  999.0,    5.7,    6.5,    5.4,    6.8,  999.0,   -0.4,   -0.0,   -0.2,   -0.3,   -0.1,    0.1,    0.2,  999.0,  999.0,    0.1,  999.0,    0.3,    0.1,  999.0,  999.0,  999.0,  999.0,  999.0,  999.0,  999.0,  999.0,  999.0,  999.0,  999.0,  999.0,   -0.1,   -0.5,   -0.0,    0.1,   -0.0,   -0.0,   -0.3,   -0.1,   -0.0,   -0.3,  999.0,   -0.4,   -0.4,   -0.0,   -0.3,    0.0,    0.2,    0.1,   -0.1,   -0.1,    0.2,    0.1,   -0.2,    0.1,   -0.1,    0.1,  999.0,  999.0,  999.0,  999.0,  999.0,  999.0,  999.0,  999.0,  999.0,  999.0,  999.0,  999.0,  999.0,  999.0
2016/12/27 00:30,  999.0,  999.0,   -2.0,  999.0,  999.0,  999.0,  999.0,    0.1,  999.0,   -0.3,   -0.7,   -0.3,   -0.6,   -0.7,   -0.3,   -0.1,    0.1,   -0.0,   -0.1,    0.1,   -0.0,   -0.1,   -0.1,  999.0,   -0.0,  999.0,  999.0,  999.0,   -0.8,  999.0,  999.0,  999.0,  999.0,  999.0,  999.0,  999.0,  999.0,  999.0,  999.0,    0.1,   -0.4,   -0.2,   -0.1,    0.0,    0.2,   -0.3,   -0.2,   -0.3,   -0.2,   -0.1,    0.0,   -0.5,   -0.1,    0.1,   -0.1,    0.1,    0.3,   -0.1,   -0.1,    0.1,   -0.2,    0.2,    0.2,    0.1,    0.1,   -0.1,  999.0,  999.0,  999.0,  999.0,  999.0,  999.0,  999.0,  999.0,  999.0,  999.0,  999.0,  999.0,  999.0,  999.0
2016/12/27 00:40,  999.0,   -0.1,   -0.1,  999.0,  999.0,  999.0,  999.0,    0.4,   -0.0,    0.0,   -0.0,  999.0,   -0.1,   -0.0,   -0.2,   -0.1,    0.0,    0.1,   -0.0,   -0.0,    0.2,   -0.1,   -0.6,   -0.1,   -0.0,    0.2,   -0.4,   -0.4,   -0.1,  999.0,  999.0,   -0.0,  999.0,   -0.3,  999.0,  999.0,  999.0,  999.0,  999.0,   -0.1,   -0.3,   -0.3,   -0.4,   -0.1,   -0.1,   -0.1,   -0.1,    0.0,    0.0,   -0.2,    0.0,    0.0,   -0.1,   -0.1,    0.1,   -0.2,   -0.2,   -0.1,   -0.0,    0.0,   -0.1,    0.1,    0.1,   -0.1,   -0.2,   -0.2,  999.0,  999.0,  999.0,  999.0,  999.0,  999.0,  999.0,  999.0,  999.0,  999.0,  999.0,  999.0,  999.0,  999.0
2016/12/27 00:50,  999.0,   -0.1,   -0.3,   -0.4,  999.0,   -1.1,   -0.8,   -0.1,    0.1,   -0.2,  999.0,   -0.3,   -0.3,   -0.4,   -0.2,   -0.2,   -0.1,   -0.1,   -0.0,    0.0,   -0.1,    0.0,    0.0,    0.0,    0.0,    0.3,  999.0,   -0.4,   -0.1,  999.0,    0.2,    0.3,    0.1,  999.0,  999.0,    0.3,   -0.3,    0.0,    0.2,    0.1,   -0.1,   -0.3,   -0.1,   -0.2,   -0.1,   -0.0,   -0.0,    0.1,    0.0,   -0.1,    0.0,   -0.1,    0.1,    0.0,    0.1,   -0.1,    0.0,   -0.1,   -0.1,    0.2,    0.1,    0.0,    0.1,   -0.1,   -0.0,    0.1,  999.0,  999.0,  999.0,  999.0,  999.0,  999.0,  999.0,  999.0,  999.0,  999.0,  999.0,  999.0,  999.0,  999.0
2016/12/27 01:00,  999.0,    0.1,    0.5,  999.0,  999.0,  999.0,   -1.8,   -0.6,   -0.2,   -0.3,    0.0,   -0.1,   -0.0,   -0.1,    0.1,   -0.1,   -0.0,   -0.1,    0.0,   -0.1,    0.0,   -0.1,   -0.2,   -0.1,   -0.1,    0.0,    0.3,   -0.1,    0.1,   -0.4,   -0.4,    0.1,    0.1,  999.0,  999.0,  999.0,   -0.1,    0.2,    0.3,   -0.1,   -0.0,   -0.1,    0.0,   -0.0,   -0.2,   -0.4,    0.0,    0.1,   -0.2,   -0.2,    0.2,    0.0,   -0.1,    0.1,    0.3,   -0.1,    0.1,    0.1,    0.0,   -0.1,    0.1,    0.1,    0.2,    0.3,   -0.1,   -0.0,    0.0,  999.0,  999.0,  999.0,  999.0,  999.0,  999.0,  999.0,  999.0,  999.0,  999.0,  999.0,  999.0,  999.0
2016/12/27 01:10,  999.0,  999.0,  999.0,  999.0,  999.0,   -0.5,  999.0,  999.0,  999.0,   -0.3,  999.0,   -0.0,   -0.2,   -0.1,   -0.1,   -0.2,   -0.2,   -0.3,   -0.1,   -0.3,   -0.3,   -0.4,   -0.3,    0.0,   -0.1,   -0.3,    0.2,  999.0,   -0.4,   -0.1,  999.0,    0.4,  999.0,  999.0,  999.0,    0.1,    0.1,    0.1,  999.0,    0.4,   -0.1,   -0.2,   -0.0,    0.1,    0.0,   -0.0,    0.0,    0.2,    0.2,   -0.0,   -0.2,    0.2,   -0.0,   -0.2,   -0.2,    0.1,   -0.3,    0.1,    0.1,    0.1,    0.1,    0.0,   -0.3,    0.0,    0.2,    0.2,  999.0,  999.0,  999.0,  999.0,  999.0,  999.0,  999.0,  999.0,  999.0,  999.0,  999.0,  999.0,  999.0,  999.0
2016/12/27 01:20,  999.0,    0.0,  999.0,  999.0,  999.0,  999.0,  999.0,  999.0,   -0.4,   -0.2,   -0.2,    0.2,    0.1,   -0.0,   -0.0,   -0.1,   -0.1,   -0.1,   -0.1,   -0.1,   -0.2,   -0.2,   -0.1,   -0.2,   -0.2,    0.0,   -0.2,  999.0,   -0.1,    0.4,  999.0,  999.0,    0.3,  999.0,  999.0,   -0.3,   -0.4,   -0.4,   -0.2,   -0.1,   -0.4,   -0.1,    0.1,    0.1,    0.2,   -0.1,   -0.1,   -0.1,   -0.4,   -0.1,   -0.2,   -0.1,   -0.1,    0.1,   -0.2,    0.2,    0.3,   -0.1,   -0.3,    0.2,   -0.1,   -0.3,   -0.1,   -0.3,   -0.1,    0.2,  999.0,  999.0,  999.0,  999.0,  999.0,  999.0,  999.0,  999.0,  999.0,  999.0,  999.0,  999.0,  999.0,  999.0
2016/12/27 01:30,  999.0,    0.2,  999.0,  999.0,  999.0,  999.0,  999.0,   -1.1,   -0.2,   -0.5,   -0.7,   -0.2,    0.0,   -0.0,   -0.1,   -0.1,   -0.1,    0.0,    0.0,    0.0,   -0.1,   -0.2,   -0.0,    0.1,   -0.0,    0.1,   -0.8,  999.0,   -0.2,    0.2,   -0.0,    0.1,  999.0,  999.0,  999.0,  999.0,    0.0,    0.1,    0.5,   -0.1,   -0.0,   -0.2,    0.0,    0.1,    0.2,   -0.1,   -0.0,   -0.0,    0.2,    0.1,    0.3,   -0.1,    0.2,    0.1,    0.2,    0.0,   -0.0,    0.2,   -0.2,   -0.1,   -0.2,    0.1,    0.1,   -0.0,    0.2,    0.1,  999.0,  999.0,  999.0,  999.0,  999.0,  999.0,  999.0,  999.0,  999.0,  999.0,  999.0,  999.0,  999.0,  999.0
2016/12/27 01:40,  999.0,  999.0,   -2.8,  999.0,  999.0,  999.0,  999.0,   -0.4,    0.0,   -0.1,   -0.2,   -0.0,    0.0,   -0.0,   -0.1,   -0.0,   -0.1,   -0.1,    0.0,    0.0,   -0.1,   -0.2,   -0.1,   -0.1,    0.0,    0.6,  999.0,  999.0,    0.0,  999.0,    0.2,   -0.5,  999.0,  999.0,  999.0,    0.2,  999.0,    0.2,    0.1,   -0.3,   -0.2,   -0.2,    0.4,    0.2,    0.3,   -0.0,   -0.1,   -0.2,    0.2,   -0.0,  999.0,    0.1,  999.0,    0.3,   -0.1,  999.0,   -0.2,    0.4,   -0.1,    0.1,    0.2,   -0.1,  999.0,    0.0,    0.5,    0.0,  999.0,  999.0,  999.0,  999.0,  999.0,  999.0,  999.0,  999.0,  999.0,  999.0,  999.0,  999.0,  999.0,  999.0
2016/12/27 01:50,  999.0,    0.2,    0.3,    0.2,  999.0,  999.0,   -0.4,  999.0,  999.0,   -0.2,   -0.1,   -0.1,   -0.1,   -0.0,    0.1,    0.1,    0.0,   -0.0,   -0.0,   -0.0,   -0.0,    0.1,   -0.0,    0.0,    0.0,    0.3,    1.2,   -0.4,    0.1,   -0.1,   -0.0,    0.3,   -0.2,  999.0,   -0.2,   -0.3,  999.0,  999.0,  999.0,    0.1,   -0.6,   -0.5,   -0.1,   -0.0,    0.2,    0.2,    0.2,    0.0,   -0.1,   -0.2,    0.7,  999.0,    0.3,   -0.1,   -0.4,   -0.8,   -0.1,   -0.0,    0.0,    0.1,    0.0,   -0.2,   -0.3,  999.0,   -0.5,  999.0,  999.0,  999.0,  999.0,  999.0,  999.0,  999.0,  999.0,  999.0,  999.0,  999.0,  999.0,  999.0,  999.0,  999.0
2016/12/27 02:00,  999.0,  999.0,  999.0,    0.1,    0.2,    0.8,   -0.1,   -0.0,   -0.2,   -0.5,   -0.3,   -0.2,   -0.2,   -0.1,    0.0,    0.1,    0.0,   -0.0,    0.0,    0.0,   -0.1,    0.0,   -0.0,    0.1,   -0.0,    0.3,   -0.1,   -0.2,    0.1,   -0.2,    0.3,  999.0,   -0.1,  999.0,  999.0,   -0.1,  999.0,  999.0,  999.0,  999.0,    0.1,  999.0,    0.1,    0.5,    0.1,    0.0,   -0.5,   -0.2,   -0.0,  999.0,  999.0,  999.0,  999.0,  999.0,    0.2,    0.3,   -0.1,   -0.4,    0.2,   -0.1,    0.0,  999.0,    0.2,    0.1,  999.0,   -0.1,  999.0,  999.0,  999.0,  999.0,  999.0,  999.0,  999.0,  999.0,  999.0,  999.0,  999.0,  999.0,  999.0,  999.0
2016/12/27 02:10,  999.0,  999.0,   -0.0,   -0.2,   -1.2,  999.0,   -0.2,   -0.0,  999.0,    0.0,   -1.0,   -0.0,    0.0,   -0.1,    0.0,   -0.1,   -0.2,   -0.2,    0.1,   -0.0,   -0.1,    0.1,    0.2,    0.3,   -0.1,   -0.2,    0.1,   -0.0,    0.1,   -0.2,  999.0,   -0.4,   -0.1,  999.0,  999.0,    0.1,  999.0,   -0.5,  999.0,  999.0,   -1.0,   -0.1,   -0.1,   -0.0,   -0.3,    0.3,   -0.1,  999.0,   -0.1,  999.0,    0.1,  999.0,    0.3,   -0.2,  999.0,    0.0,   -0.0,    0.1,   -0.1,   -0.1,   -0.0,    0.1,  999.0,    0.3,   -0.2,  999.0,  999.0,  999.0,  999.0,  999.0,  999.0,  999.0,  999.0,  999.0,  999.0,  999.0,  999.0,  999.0,  999.0,  999.0
2016/12/27 02:20,  999.0,  999.0,   -0.1,   -0.2,   -0.5,   -0.8,  999.0,  999.0,  999.0,   -0.2,   -0.8,   -0.2,   -0.1,   -0.8,   -0.3,   -0.2,   -0.1,   -0.1,    0.1,   -0.2,   -0.3,    0.0,    0.2,    6.3,   12.7,   13.7,   13.3,   14.2,   18.9,   18.3,   24.2,   24.3,   24.4,   23.9,   15.2,   23.7,   23.4,  999.0,  999.0,  999.0,  999.0,  999.0,  999.0,  999.0,  999.0,   -0.1,  999.0,    0.8,    0.4,    0.1,   -0.1,    0.2,    0.3,  999.0,    0.0,    0.2,   -0.1,   -0.1,    0.1,   -0.1,   -0.5,    0.0,    0.3,    0.2,  999.0,   -0.0,  999.0,  999.0,  999.0,  999.0,  999.0,  999.0,  999.0,  999.0,  999.0,  999.0,  999.0,  999.0,  999.0,  999.0
2016/12/27 02:30,  999.0,  999.0,    0.0,   -0.2,    3.3,    2.6,    3.7,    2.0,    0.2,   -0.4,   -0.4,   -0.4,   -0.5,   -0.4,   -0.1,   -0.0,    4.3,    5.1,    1.8,    4.3,  999.0,  999.0,  999.0,  999.0,  999.0,  999.0,  999.0,  999.0,  999.0,  999.0,  999.0,  999.0,  999.0,  999.0,  999.0,  999.0,  999.0,  999.0,  999.0,  999.0,  999.0,  999.0,  999.0,  999.0,  999.0,   -0.1,   -0.2,  999.0,  999.0,  999.0,  999.0,   -0.3,  999.0,    0.6,    0.1,  999.0,    0.3,  999.0,   -0.0,    0.5,  999.0,    0.1,  999.0,  999.0,    0.1,   -0.1,  999.0,  999.0,  999.0,  999.0,  999.0,  999.0,  999.0,  999.0,  999.0,  999.0,  999.0,  999.0,  999.0,  999.0
2016/12/27 02:40,  999.0,  999.0,   -0.1,  999.0,    2.6,    1.6,    2.4,  999.0,  999.0,    2.7,    4.8,   -0.1,   -0.1,   -0.2,    2.3,    2.5,   -0.0,    0.0,    0.0,    0.0,    0.1,    0.5,  999.0,  999.0,   -0.1,  999.0,  999.0,  999.0,    0.2,  999.0,   -0.0,    0.4,   -0.1,  999.0,  999.0,  999.0,  999.0,  999.0,  999.0,  999.0,  999.0,  999.0,  999.0,  999.0,  999.0,  999.0,   12.2,  999.0,  999.0,  999.0,   25.2,   14.3,   19.2,   10.6,   11.9,   -0.1,    0.1,  999.0,   -1.2,  999.0,   -0.1,    0.1,  999.0,  999.0,   -0.3,  999.0,  999.0,  999.0,  999.0,  999.0,  999.0,  999.0,  999.0,  999.0,  999.0,  999.0,  999.0,  999.0,  999.0,  999.0
2016/12/27 02:50,  999.0,  999.0,   -0.2,    0.9,  999.0,    0.7,   -0.6,    1.0,  999.0,   -0.7,    4.8,    4.8,    4.5,    4.5,    1.1,   -0.2,   -0.0,   -0.2,   -0.1,    0.1,    0.5,    0.1,  999.0,  999.0,   -0.5,   -0.3,  999.0,   -0.1,    0.0,   11.4,  999.0,  999.0,   23.7,  999.0,  999.0,   26.4,   25.4,   24.9,   24.1,   24.5,   25.1,   26.2,   25.9,   25.4,   25.0,   25.0,   25.4,   25.3,   25.9,  999.0,  999.0,   27.3,   27.5,   28.5,  999.0,  999.0,   32.1,   31.4,  999.0,  999.0,  999.0,  999.0,  999.0,  999.0,  999.0,  999.0,  999.0,  999.0,  999.0,  999.0,  999.0,  999.0,  999.0,  999.0,  999.0,  999.0,  999.0,  999.0,  999.0,  999.0
2016/12/27 03:00,  999.0,  999.0,  999.0,  999.0,    6.7,    5.5,  999.0,  999.0,    8.5,    8.6,    9.5,   11.8,   10.3,   10.5,   10.8,   10.1,   10.9,   11.1,    8.0,    8.0,   10.1,   15.8,   17.8,   19.2,   20.0,   21.7,   21.8,   22.5,   23.1,   22.9,   23.4,   24.0,   24.9,   25.1,   25.4,   25.3,   25.0,   25.2,   25.1,   25.0,   24.5,   25.2,   25.8,   25.8,   25.5,   25.5,   25.4,   25.2,   25.6,   26.4,   27.4,   27.8,   27.4,   28.3,   29.1,   29.2,   28.6,   30.4,   31.7,   31.8,   33.0,   34.9,  999.0,   36.9,  999.0,  999.0,  999.0,  999.0,  999.0,  999.0,  999.0,  999.0,  999.0,  999.0,  999.0,  999.0,  999.0,  999.0,  999.0,  999.0
2016/12/27 03:10,  999.0,    2.3,    1.7,    2.6,    5.4,    5.6,    6.4,    7.4,    8.4,    9.5,   10.0,    9.8,   10.1,    9.3,    8.7,    8.6,    9.6,   11.1,   10.5,    9.9,  999.0,   16.0,   18.3,   19.5,   19.9,   20.9,   22.1,   23.3,   23.9,   24.6,   25.3,   25.3,   25.1,   24.8,   25.3,   25.7,   26.4,   26.7,   26.6,   25.8,   25.1,   25.3,   26.2,   26.9,   27.3,   27.2,   27.0,   27.1,   27.7,   27.7,   28.0,   29.4,   29.6,   29.3,   28.3,   28.3,   28.7,   29.2,   30.2,   30.8,   32.1,   33.2,   34.3,   35.0,   36.0,   35.2,   37.2,   37.4,  999.0,  999.0,  999.0,  999.0,  999.0,  999.0,  999.0,  999.0,  999.0,  999.0,  999.0,  999.0
2016/12/27 03:20,  999.0,    2.0,    2.8,    2.6,    5.3,    6.2,    7.3,    7.6,    7.6,    7.8,    8.8,    9.1,    8.8,    9.4,    9.7,   10.5,   11.4,   11.0,  999.0,  999.0,  999.0,   13.7,   16.6,   18.4,   19.7,   20.9,   22.4,   24.0,   24.7,   24.6,   25.1,   24.6,   24.9,   25.9,   26.2,   26.2,   26.6,   26.7,   27.0,   26.7,   26.2,   26.7,   27.8,   29.4,   29.5,   29.6,   29.2,   28.6,   28.7,   28.6,   28.6,   28.2,   28.4,   28.2,   28.4,   28.7,   28.9,   29.9,   30.0,   30.7,   30.8,   30.8,   30.8,   32.0,   33.0,   33.9,   34.2,   34.1,   34.7,   34.1,   34.5,   34.8,   35.6,   36.1,  999.0,   36.3,   37.8,  999.0,  999.0,  999.0
2016/12/27 03:30,  999.0,    2.0,    2.0,    2.8,    5.1,    6.1,    7.3,    8.4,    9.5,   10.6,   10.0,    9.9,    9.5,    9.8,   10.3,   11.6,   12.8,   11.7,  999.0,  999.0,   12.3,   13.6,   15.0,   16.7,   18.6,   20.4,   22.2,   23.3,   24.1,   24.8,   25.5,   25.9,   26.3,   26.6,   26.5,   26.8,   27.0,   26.8,   26.6,   26.7,   26.9,   26.6,   27.0,   27.5,   28.0,   28.1,   28.1,   28.3,   28.8,   29.5,   30.2,   30.7,   31.1,   31.1,   30.8,   30.4,   30.7,   30.1,   30.8,   31.6,   31.9,   32.1,   32.5,   33.2,   33.5,   33.9,   33.9,   34.5,   35.1,   34.9,   35.0,   35.5,   36.0,   35.5,   35.8,  999.0,  999.0,   37.0,  999.0,  999.0
2016/12/27 03:40,  999.0,    1.4,    2.3,    1.6,    4.7,    5.3,    7.2,    7.2,    9.0,    9.1,    8.6,    9.4,   10.1,    9.3,    9.9,    9.7,   10.2,   10.0,  999.0,  999.0,  999.0,   12.5,   14.5,   16.5,   18.2,   19.5,   20.9,   22.9,   22.7,   23.6,   24.5,   24.7,   25.2,   25.7,   26.9,   27.1,   27.3,   27.2,   26.9,   26.4,   26.6,   26.6,   26.4,   26.9,   27.6,   28.0,   27.8,   28.6,   30.2,   30.4,   31.4,   32.7,   32.7,  999.0,  999.0,  999.0,  999.0,  999.0,  999.0,  999.0,  999.0,  999.0,  999.0,  999.0,  999.0,  999.0,  999.0,  999.0,  999.0,  999.0,  999.0,  999.0,  999.0,  999.0,  999.0,  999.0,  999.0,  999.0,  999.0,  999.0
2016/12/27 03:50,  999.0,    1.6,    1.5,    2.0,    2.9,    3.7,    5.0,    6.5,    8.7,    7.0,    5.9,    6.3,    6.7,    7.6,    9.1,    9.2,   10.1,    8.6,  999.0,  999.0,   10.1,   12.0,   14.1,   16.2,   18.2,   19.3,   20.5,   21.0,   22.3,   23.5,   24.5,   25.3,   25.7,   25.8,   26.1,   27.1,   27.0,   26.9,   26.5,   26.1,   26.2,   26.7,   27.3,   27.7,   27.7,   28.7,   30.4,   31.4,   32.1,   33.4,   33.4,   34.2,  999.0,  999.0,  999.0,  999.0,  999.0,  999.0,  999.0,  999.0,  999.0,  999.0,  999.0,  999.0,  999.0,  999.0,  999.0,  999.0,  999.0,  999.0,  999.0,  999.0,  999.0,  999.0,  999.0,  999.0,  999.0,  999.0,  999.0,  999.0
2016/12/27 04:00,  999.0,  999.0,    2.3,    1.4,  999.0,    3.8,    5.0,    5.8,    7.3,    7.5,    6.0,    6.3,    7.4,    7.7,    8.8,    9.5,   10.6,   11.3,  999.0,  999.0,   12.1,   12.9,   13.4,   15.5,   17.8,   19.1,   21.0,   21.2,   22.3,   24.1,   26.2,   26.4,   26.1,   26.0,   26.8,   27.2,   27.0,   26.7,   27.5,   27.3,   26.9,   27.4,   28.2,   28.4,   29.4,   30.1,   31.3,   32.0,   31.5,  999.0,  999.0,  999.0,  999.0,  999.0,  999.0,  999.0,  999.0,  999.0,  999.0,  999.0,  999.0,  999.0,  999.0,  999.0,  999.0,  999.0,  999.0,  999.0,  999.0,  999.0,  999.0,  999.0,  999.0,  999.0,  999.0,  999.0,  999.0,  999.0,  999.0,  999.0
2016/12/27 04:10,  999.0,    3.7,    4.4,    3.6,    4.2,    2.6,    4.4,    5.5,    5.9,    6.8,    6.6,    6.4,    7.4,    9.0,   10.4,   11.6,   11.5,   11.9,   10.6,   11.7,   12.3,   13.2,   14.0,   16.8,   19.7,   21.0,   22.4,   22.5,   22.8,   23.7,   25.1,   25.8,   26.3,   26.3,   26.3,   27.3,   26.8,   26.6,   27.3,   27.1,   28.7,   29.6,   28.7,  999.0,  999.0,  999.0,  999.0,  999.0,  999.0,  999.0,  999.0,  999.0,  999.0,  999.0,  999.0,  999.0,  999.0,  999.0,  999.0,  999.0,  999.0,  999.0,  999.0,  999.0,  999.0,  999.0,  999.0,  999.0,  999.0,  999.0,  999.0,  999.0,  999.0,  999.0,  999.0,  999.0,  999.0,  999.0,  999.0,  999.0
2016/12/27 04:20,  999.0,  999.0,    3.2,  999.0,  999.0,    3.2,    3.1,    3.3,    4.1,    4.7,    6.1,    5.9,    6.2,    7.9,    9.3,   11.1,   11.2,   12.3,   11.9,   12.7,   13.5,   13.7,   16.0,   19.2,   21.7,   22.3,   23.1,   24.2,   24.8,   25.4,   25.4,   26.1,   27.0,   27.8,   28.1,   28.6,   28.6,   28.6,   28.6,   28.9,   29.2,   28.8,   28.9,   29.5,   29.3,   29.7,   30.4,   31.4,   31.7,   31.2,  999.0,  999.0,  999.0,  999.0,  999.0,  999.0,  999.0,  999.0,  999.0,  999.0,  999.0,  999.0,  999.0,  999.0,  999.0,  999.0,  999.0,  999.0,  999.0,  999.0,  999.0,  999.0,  999.0,  999.0,  999.0,  999.0,  999.0,  999.0,  999.0,  999.0
2016/12/27 04:30,  999.0,    2.1,    3.2,    2.9,    4.0,    3.8,    4.0,    4.3,    5.4,    5.5,    6.2,    7.4,    8.9,    9.3,   10.1,   10.6,   10.8,   11.3,   12.0,   14.8,   15.2,   16.8,   18.9,   20.6,   22.0,   22.6,   23.1,   23.9,   25.7,   26.2,   27.0,   27.2,   28.1,   28.6,   28.9,   28.9,   29.3,   29.3,   29.8,   29.9,   29.7,   30.2,   30.5,   30.8,   31.2,   31.4,   31.5,   31.7,   31.5,   30.8,   29.8,   29.3,   29.2,   30.0,   29.5,   29.7,   30.8,  999.0,  999.0,  999.0,  999.0,  999.0,  999.0,  999.0,  999.0,  999.0,  999.0,  999.0,  999.0,  999.0,  999.0,  999.0,  999.0,  999.0,  999.0,  999.0,  999.0,  999.0,  999.0,  999.0
2016/12/27 04:40,  999.0,    1.8,    2.5,    3.6,    3.7,    2.9,    2.8,    3.2,    4.4,    5.0,    4.8,    7.3,    7.8,    8.0,    8.2,    9.8,   10.1,   11.1,   10.6,   14.2,  999.0,  999.0,   18.9,   20.1,   21.9,   22.9,   24.1,   25.8,   26.6,   26.6,   26.4,   26.8,   27.0,   27.1,   28.2,   28.3,   29.2,   29.1,   29.4,   29.7,   29.9,   30.8,   31.3,   32.0,   32.0,   31.8,   32.1,   31.4,   31.4,   31.0,   29.8,   30.0,   30.2,   30.7,   30.2,   29.8,   30.6,   29.7,   31.0,   32.2,   32.5,   33.7,  999.0,   32.8,   32.4,  999.0,  999.0,  999.0,  999.0,  999.0,  999.0,  999.0,  999.0,  999.0,  999.0,  999.0,  999.0,  999.0,  999.0,  999.0
2016/12/27 04:50,  999.0,  999.0,    1.7,    1.8,    4.8,  999.0,    2.2,    1.7,    3.7,    4.4,    6.1,    6.3,    7.5,    8.3,    9.2,    9.6,    9.6,   10.1,   10.6,   13.8,   15.7,   16.2,   18.9,   21.2,   22.2,   22.7,   22.8,   23.2,   23.6,   24.0,   24.7,   25.5,   24.8,   26.3,   27.0,   27.8,   28.1,   28.5,   28.7,   30.0,   29.6,   29.3,   29.2,   30.0,   29.9,   30.3,   30.2,   30.1,   30.3,   30.0,   29.8,   29.3,   29.0,   29.4,   29.6,   30.4,   31.1,   31.1,   31.3,   30.9,   31.4,   32.2,   33.0,   33.3,   33.6,   33.5,   34.3,   33.4,  999.0,  999.0,  999.0,  999.0,  999.0,  999.0,  999.0,  999.0,  999.0,  999.0,  999.0,  999.0
2016/12/27 05:00,  999.0,    1.5,    2.1,    1.2,    1.4,    1.4,    2.5,    3.7,    4.8,    5.2,    4.6,    5.8,    7.2,    7.6,    8.2,    8.8,    9.8,   11.1,   12.6,   13.3,   15.7,   17.5,   20.2,   22.1,   21.2,   22.2,   22.8,   23.6,   23.9,   26.1,   27.0,   28.4,   28.3,   28.8,   29.5,   29.7,   30.3,   30.7,   30.8,   30.3,   30.7,  999.0,   30.6,   30.7,   30.6,   31.0,   31.5,   31.3,   30.8,   31.6,   30.9,   30.9,   31.5,   30.5,   30.7,   30.5,   33.1,  999.0,  999.0,  999.0,  999.0,  999.0,  999.0,  999.0,  999.0,  999.0,  999.0,  999.0,  999.0,  999.0,  999.0,  999.0,  999.0,  999.0,  999.0,  999.0,  999.0,  999.0,  999.0,  999.0
2016/12/27 05:10,  999.0,   -4.2,   -4.1,  999.0,  999.0,  999.0,  999.0,    5.8,    7.4,    4.2,    4.5,    8.8,    9.3,    6.5,    7.8,    9.9,   11.4,   12.0,   13.2,   14.8,   17.9,  999.0,   20.9,   22.0,  999.0,   21.1,   22.9,   24.7,   25.2,   26.5,   27.5,   28.3,   29.4,   29.1,   30.5,   30.9,   30.8,   30.0,   30.6,   30.8,   30.1,   29.5,   30.1,   30.9,   31.4,   30.7,   30.5,   30.9,   31.3,   30.7,   31.0,   31.2,   31.0,   30.3,   31.8,   31.6,   31.4,   31.8,   32.3,   32.6,   33.6,   33.9,   34.0,   34.7,   34.1,  999.0,  999.0,  999.0,  999.0,  999.0,  999.0,  999.0,  999.0,  999.0,  999.0,  999.0,  999.0,  999.0,  999.0,  999.0
2016/12/27 05:20,  999.0,    1.4,    1.4,   -1.0,   -2.0,   -0.8,    2.3,    8.9,    6.9,    4.9,    5.3,    5.3,    7.6,    7.5,    9.3,   10.6,   13.9,   11.8,   13.0,   15.1,   17.7,   25.1,   20.9,   20.9,   23.2,   23.5,   24.7,   24.8,   25.0,  999.0,  999.0,  999.0,  999.0,  999.0,  999.0,  999.0,  999.0,   33.1,   33.1,   33.2,  999.0,   31.7,   31.8,   32.4,   32.2,   32.1,   32.0,   32.7,   33.8,  999.0,  999.0,  999.0,  999.0,  999.0,  999.0,  999.0,  999.0,  999.0,  999.0,  999.0,  999.0,  999.0,  999.0,  999.0,  999.0,  999.0,  999.0,  999.0,  999.0,  999.0,  999.0,  999.0,  999.0,  999.0,  999.0,  999.0,  999.0,  999.0,  999.0,  999.0
2016/12/27 05:30,  999.0,  999.0,  999.0,  999.0,  999.0,  999.0,    2.2,    2.9,    3.6,    4.3,  999.0,    5.0,    6.4,  999.0,  999.0,   11.6,  999.0,  999.0,  999.0,  999.0,  999.0,  999.0,  999.0,  999.0,  999.0,  999.0,  999.0,  999.0,  999.0,  999.0,  999.0,  999.0,  999.0,  999.0,  999.0,  999.0,  999.0,  999.0,  999.0,  999.0,  999.0,  999.0,  999.0,  999.0,  999.0,  999.0,  999.0,  999.0,  999.0,  999.0,  999.0,  999.0,  999.0,  999.0,  999.0,  999.0,  999.0,  999.0,  999.0,  999.0,  999.0,  999.0,  999.0,  999.0,  999.0,  999.0,  999.0,  999.0,  999.0,  999.0,  999.0,  999.0,  999.0,  999.0,  999.0,  999.0,  999.0,  999.0,  999.0,  999.0
2016/12/27 05:40,  999.0,  999.0,  999.0,  999.0,  999.0,  999.0,    2.3,    2.9,    4.2,  999.0,  999.0,    4.9,  999.0,  999.0,  999.0,  999.0,  999.0,  999.0,  999.0,  999.0,  999.0,  999.0,  999.0,  999.0,  999.0,  999.0,  999.0,  999.0,  999.0,  999.0,  999.0,  999.0,  999.0,  999.0,  999.0,  999.0,  999.0,  999.0,  999.0,  999.0,  999.0,  999.0,  999.0,  999.0,  999.0,  999.0,  999.0,  999.0,  999.0,  999.0,  999.0,  999.0,  999.0,  999.0,  999.0,  999.0,  999.0,  999.0,  999.0,  999.0,  999.0,  999.0,  999.0,  999.0,  999.0,  999.0,  999.0,  999.0,  999.0,  999.0,  999.0,  999.0,  999.0,  999.0,  999.0,  999.0,  999.0,  999.0,  999.0,  999.0
2016/12/27 05:50,  999.0,    0.6,    0.3,    0.1,   -0.1,   -0.1,    0.6,    2.1,  999.0,  999.0,  999.0,    5.2,    6.7,  999.0,  999.0,    8.5,   10.1,   10.6,  999.0,  999.0,  999.0,  999.0,  999.0,  999.0,  999.0,  999.0,  999.0,  999.0,  999.0,  999.0,  999.0,  999.0,  999.0,  999.0,  999.0,  999.0,  999.0,  999.0,  999.0,  999.0,  999.0,  999.0,  999.0,  999.0,  999.0,  999.0,  999.0,  999.0,  999.0,  999.0,  999.0,  999.0,  999.0,  999.0,  999.0,  999.0,  999.0,  999.0,  999.0,  999.0,  999.0,  999.0,  999.0,  999.0,  999.0,  999.0,  999.0,  999.0,  999.0,  999.0,  999.0,  999.0,  999.0,  999.0,  999.0,  999.0,  999.0,  999.0,  999.0,  999.0
2016/12/27 06:00,  999.0,    0.7,    0.7,    0.3,    1.3,  999.0,    1.4,    0.1,  999.0,    5.0,    6.3,    6.4,    7.5,    9.0,    9.3,   10.3,   11.7,  999.0,  999.0,  999.0,  999.0,  999.0,  999.0,  999.0,  999.0,  999.0,  999.0,  999.0,  999.0,  999.0,  999.0,  999.0,  999.0,  999.0,  999.0,  999.0,  999.0,  999.0,  999.0,  999.0,  999.0,  999.0,  999.0,  999.0,  999.0,  999.0,  999.0,  999.0,  999.0,  999.0,  999.0,  999.0,  999.0,  999.0,  999.0,  999.0,  999.0,  999.0,  999.0,  999.0,  999.0,  999.0,  999.0,  999.0,  999.0,  999.0,  999.0,  999.0,  999.0,  999.0,  999.0,  999.0,  999.0,  999.0,  999.0,  999.0,  999.0,  999.0,  999.0,  999.0
2016/12/27 06:10,  999.0,    0.3,    0.1,    0.6,    0.8,  999.0,    2.0,  999.0,  999.0,  999.0,    6.7,  999.0,  999.0,    7.7,    9.0,    9.8,  999.0,  999.0,  999.0,  999.0,  999.0,  999.0,  999.0,  999.0,  999.0,  999.0,  999.0,  999.0,  999.0,  999.0,  999.0,  999.0,  999.0,  999.0,  999.0,  999.0,  999.0,  999.0,  999.0,  999.0,  999.0,  999.0,  999.0,  999.0,  999.0,  999.0,  999.0,  999.0,  999.0,  999.0,  999.0,  999.0,  999.0,  999.0,  999.0,  999.0,  999.0,  999.0,  999.0,  999.0,  999.0,  999.0,  999.0,  999.0,  999.0,  999.0,  999.0,  999.0,  999.0,  999.0,  999.0,  999.0,  999.0,  999.0,  999.0,  999.0,  999.0,  999.0,  999.0,  999.0
2016/12/27 06:20,  999.0,    0.3,   -0.0,   -0.1,  999.0,  999.0,  999.0,    3.0,    5.7,    6.0,    6.6,    8.7,  999.0,    8.2,   10.0,   11.1,  999.0,  999.0,  999.0,  999.0,  999.0,  999.0,  999.0,  999.0,  999.0,  999.0,  999.0,  999.0,  999.0,  999.0,  999.0,  999.0,  999.0,  999.0,  999.0,  999.0,  999.0,  999.0,  999.0,  999.0,  999.0,  999.0,  999.0,  999.0,  999.0,  999.0,  999.0,  999.0,  999.0,  999.0,  999.0,  999.0,  999.0,  999.0,  999.0,  999.0,  999.0,  999.0,  999.0,  999.0,  999.0,  999.0,  999.0,  999.0,  999.0,  999.0,  999.0,  999.0,  999.0,  999.0,  999.0,  999.0,  999.0,  999.0,  999.0,  999.0,  999.0,  999.0,  999.0,  999.0
2016/12/27 06:30,  999.0,    0.0,    0.1,    0.4,  999.0,  999.0,    0.5,  999.0,  999.0,    6.4,    6.8,  999.0,  999.0,  999.0,  999.0,    9.8,  999.0,  999.0,  999.0,  999.0,  999.0,  999.0,  999.0,  999.0,  999.0,  999.0,  999.0,  999.0,  999.0,  999.0,  999.0,  999.0,  999.0,  999.0,  999.0,  999.0,  999.0,  999.0,  999.0,  999.0,  999.0,  999.0,  999.0,  999.0,  999.0,  999.0,  999.0,  999.0,  999.0,  999.0,  999.0,  999.0,  999.0,  999.0,  999.0,  999.0,  999.0,  999.0,  999.0,  999.0,  999.0,  999.0,  999.0,  999.0,  999.0,  999.0,  999.0,  999.0,  999.0,  999.0,  999.0,  999.0,  999.0,  999.0,  999.0,  999.0,  999.0,  999.0,  999.0,  999.0
2016/12/27 06:40,  999.0,    0.1,   -0.2,    0.5,  999.0,    0.1,    0.4,    1.5,   -0.1,  999.0,  999.0,  999.0,  999.0,  999.0,  999.0,  999.0,  999.0,  999.0,  999.0,  999.0,  999.0,  999.0,  999.0,  999.0,  999.0,  999.0,  999.0,  999.0,  999.0,  999.0,  999.0,  999.0,  999.0,  999.0,  999.0,  999.0,  999.0,  999.0,  999.0,  999.0,  999.0,  999.0,  999.0,  999.0,  999.0,  999.0,  999.0,  999.0,  999.0,  999.0,  999.0,  999.0,  999.0,  999.0,  999.0,  999.0,  999.0,  999.0,  999.0,  999.0,  999.0,  999.0,  999.0,  999.0,  999.0,  999.0,  999.0,  999.0,  999.0,  999.0,  999.0,  999.0,  999.0,  999.0,  999.0,  999.0,  999.0,  999.0,  999.0,  999.0
2016/12/27 06:50,  999.0,   -0.2,    0.0,    0.5,    0.2,   -0.2,    0.1,  999.0,    0.5,   -0.1,  999.0,  999.0,  999.0,  999.0,    0.5,   -0.1,    0.5,    0.1,    0.1,   -0.1,    0.3,  999.0,  999.0,  999.0,   -0.1,  999.0,  999.0,  999.0,  999.0,  999.0,  999.0,  999.0,  999.0,  999.0,  999.0,  999.0,  999.0,  999.0,  999.0,  999.0,  999.0,  999.0,  999.0,  999.0,  999.0,  999.0,  999.0,  999.0,  999.0,  999.0,  999.0,  999.0,  999.0,  999.0,  999.0,  999.0,  999.0,  999.0,  999.0,  999.0,  999.0,  999.0,  999.0,  999.0,  999.0,  999.0,  999.0,  999.0,  999.0,  999.0,  999.0,  999.0,  999.0,  999.0,  999.0,  999.0,  999.0,  999.0,  999.0,  999.0
2016/12/27 07:00,  999.0,    0.3,    0.3,    0.7,   -0.2,   -0.8,    0.3,   -0.2,   -0.1,   -0.6,   -0.6,  999.0,  999.0,    0.0,    0.1,    0.8,    0.5,    0.3,  999.0,  999.0,  999.0,  999.0,  999.0,    0.6,  999.0,  999.0,  999.0,  999.0,  999.0,  999.0,  999.0,  999.0,  999.0,  999.0,  999.0,  999.0,  999.0,  999.0,  999.0,  999.0,  999.0,  999.0,  999.0,  999.0,  999.0,  999.0,  999.0,  999.0,  999.0,  999.0,  999.0,  999.0,  999.0,  999.0,  999.0,  999.0,  999.0,  999.0,  999.0,  999.0,  999.0,  999.0,  999.0,  999.0,  999.0,  999.0,  999.0,  999.0,  999.0,  999.0,  999.0,  999.0,  999.0,  999.0,  999.0,  999.0,  999.0,  999.0,  999.0,  999.0
2016/12/27 07:10,  999.0,   -0.2,    0.8,    1.5,    0.2,   -1.5,   -0.1,   -0.5,    0.2,   -0.3,   -0.2,  999.0,    0.9,  999.0,    0.6,    0.8,    0.9,   -0.0,   -0.1,   -0.3,  999.0,  999.0,  999.0,  999.0,  999.0,  999.0,  999.0,  999.0,  999.0,  999.0,  999.0,  999.0,  999.0,  999.0,  999.0,  999.0,  999.0,  999.0,  999.0,  999.0,  999.0,  999.0,  999.0,  999.0,  999.0,  999.0,  999.0,  999.0,  999.0,  999.0,  999.0,  999.0,  999.0,  999.0,  999.0,  999.0,  999.0,  999.0,  999.0,  999.0,  999.0,  999.0,  999.0,  999.0,  999.0,  999.0,  999.0,  999.0,  999.0,  999.0,  999.0,  999.0,  999.0,  999.0,  999.0,  999.0,  999.0,  999.0,  999.0,  999.0
2016/12/27 07:20,  999.0,    1.1,   -0.5,   -0.1,    0.8,    0.7,    0.7,    0.5,    0.6,   -0.5,   -0.4,  999.0,  999.0,    0.5,    0.9,    0.4,    0.5,  999.0,    0.2,    0.2,  999.0,  999.0,  999.0,  999.0,  999.0,  999.0,  999.0,  999.0,  999.0,  999.0,  999.0,  999.0,  999.0,  999.0,  999.0,  999.0,  999.0,  999.0,  999.0,  999.0,  999.0,  999.0,  999.0,  999.0,  999.0,  999.0,  999.0,  999.0,  999.0,  999.0,  999.0,  999.0,  999.0,  999.0,  999.0,  999.0,  999.0,  999.0,  999.0,  999.0,  999.0,  999.0,  999.0,  999.0,  999.0,  999.0,  999.0,  999.0,  999.0,  999.0,  999.0,  999.0,  999.0,  999.0,  999.0,  999.0,  999.0,  999.0,  999.0,  999.0
2016/12/27 07:30,  999.0,  999.0,    0.3,    0.6,    1.3,   -0.5,    0.2,    0.1,    0.9,    2.1,    5.9,  999.0,  999.0,  999.0,  999.0,  999.0,  999.0,  999.0,  999.0,  999.0,  999.0,  999.0,  999.0,  999.0,  999.0,  999.0,  999.0,  999.0,  999.0,  999.0,  999.0,  999.0,  999.0,  999.0,  999.0,  999.0,  999.0,  999.0,  999.0,  999.0,  999.0,  999.0,  999.0,   28.4,   28.6,   29.6,   29.7,   29.5,   29.0,   30.0,   29.9,   29.8,   29.9,   30.4,   31.4,   30.8,   29.8,   30.8,   30.1,   29.8,   30.1,   29.9,   30.0,   30.9,   31.1,   32.1,  999.0,  999.0,  999.0,  999.0,  999.0,  999.0,  999.0,  999.0,  999.0,  999.0,  999.0,  999.0,  999.0,  999.0
2016/12/27 07:40,  999.0,    1.7,    0.4,    0.4,    1.3,    0.1,    0.4,    0.8,    0.2,    1.7,    3.7,    5.1,  999.0,  999.0,  999.0,  999.0,  999.0,  999.0,  999.0,  999.0,  999.0,  999.0,  999.0,  999.0,  999.0,  999.0,  999.0,  999.0,  999.0,  999.0,  999.0,  999.0,  999.0,  999.0,  999.0,  999.0,  999.0,   28.8,   29.1,   29.2,   28.5,   28.2,   28.1,   27.8,   27.4,   27.8,   28.6,   29.0,   28.8,   28.7,   29.1,   29.1,   29.1,   29.0,   29.4,   29.4,   30.2,   30.4,   30.1,   29.7,   29.0,   28.8,   29.4,   30.0,   30.5,   31.7,   31.4,   31.6,   33.1,  999.0,   34.4,  999.0,  999.0,  999.0,  999.0,  999.0,  999.0,  999.0,  999.0,  999.0
2016/12/27 07:50,  999.0,    0.2,    1.0,    0.8,    0.9,    0.3,    0.1,    0.3,    0.9,    2.0,    3.2,  999.0,  999.0,  999.0,  999.0,  999.0,  999.0,  999.0,  999.0,  999.0,  999.0,  999.0,  999.0,  999.0,  999.0,  999.0,  999.0,  999.0,  999.0,  999.0,  999.0,  999.0,   27.2,   27.1,   27.7,   28.0,   27.7,   28.7,   29.4,   29.1,   29.7,   29.7,   29.1,   30.0,   29.5,   28.8,   28.6,   28.8,   29.2,   29.6,   30.1,   29.5,   29.3,   29.2,   29.1,   29.3,   29.0,   29.0,   28.7,   28.9,   29.0,   29.4,   29.8,   30.9,   31.5,   32.4,   32.3,   33.9,   34.7,   34.6,   34.9,   35.5,  999.0,  999.0,  999.0,  999.0,  999.0,  999.0,  999.0,  999.0
2016/12/27 08:00,  999.0,   -0.0,   -0.5,   -0.1,    1.6,    0.7,    0.0,   -0.1,    0.3,    0.9,    1.1,  999.0,  999.0,  999.0,  999.0,  999.0,  999.0,  999.0,  999.0,  999.0,  999.0,  999.0,  999.0,  999.0,  999.0,  999.0,  999.0,  999.0,  999.0,  999.0,  999.0,  999.0,  999.0,  999.0,   26.9,   27.4,   28.2,   28.9,   28.6,   29.4,   29.7,   29.6,   29.5,   29.9,   29.8,   29.0,   29.2,   29.7,   29.3,   29.1,   29.3,   29.5,   29.4,   29.4,   29.6,   29.8,   29.2,   28.9,   29.0,   29.0,   29.1,   29.1,   30.0,   31.6,   32.0,   33.0,   33.0,   32.3,   33.3,   34.0,   34.8,  999.0,  999.0,  999.0,  999.0,  999.0,  999.0,  999.0,  999.0,  999.0
2016/12/27 08:10,  999.0,    0.6,   -0.1,    0.0,    1.7,    0.5,    0.1,    0.4,    0.4,    0.8,    1.8,    0.8,  999.0,  999.0,  999.0,  999.0,  999.0,  999.0,  999.0,  999.0,  999.0,  999.0,  999.0,  999.0,  999.0,  999.0,  999.0,  999.0,  999.0,  999.0,  999.0,  999.0,  999.0,  999.0,  999.0,  999.0,  999.0,  999.0,  999.0,   29.0,   29.1,   29.1,   29.2,   29.5,   29.4,   28.8,   29.3,   30.3,   30.2,   29.7,   29.6,   30.0,   29.8,   30.1,   29.7,   29.7,   29.4,   28.9,   28.6,   28.8,   28.8,   29.1,   29.9,   30.6,  999.0,  999.0,  999.0,  999.0,  999.0,  999.0,  999.0,  999.0,  999.0,  999.0,  999.0,  999.0,  999.0,  999.0,  999.0,  999.0
2016/12/27 08:20,  999.0,   -0.2,   -0.0,    0.3,    2.1,    0.6,    0.1,    0.3,    1.6,    1.6,    3.1,  999.0,    1.3,    0.5,  999.0,   -0.3,  999.0,   -0.1,    0.2,   -0.2,    0.0,  999.0,  999.0,  999.0,  999.0,  999.0,    0.3,  999.0,  999.0,  999.0,  999.0,  999.0,  999.0,  999.0,  999.0,  999.0,  999.0,  999.0,   28.6,   30.3,   31.1,   30.9,   30.7,   30.4,   30.1,   30.1,   30.8,   30.4,   30.2,   29.7,   30.0,   29.7,   30.6,   30.7,   30.3,   30.2,   30.5,   30.1,   29.8,   28.5,   28.4,   29.0,   29.0,   30.0,   31.1,   31.8,   31.4,  999.0,  999.0,  999.0,  999.0,  999.0,  999.0,  999.0,  999.0,  999.0,  999.0,  999.0,  999.0,  999.0
2016/12/27 08:30,  999.0,   -0.3,   -0.2,    0.3,    1.9,    1.0,    0.4,   -0.1,    1.3,    0.5,    3.4,    1.4,    0.2,   -0.9,  999.0,  999.0,   -0.1,    0.1,    0.2,    0.5,    0.6,    0.4,   -0.8,  999.0,    0.3,  999.0,  999.0,  999.0,  999.0,  999.0,  999.0,  999.0,  999.0,  999.0,  999.0,  999.0,   28.3,   29.4,   30.2,   30.5,   31.1,   31.7,   31.3,   31.4,   31.5,   31.7,   31.2,   31.8,   31.4,   31.8,   31.6,   31.4,   31.1,   30.6,   30.5,   30.2,   29.5,   29.2,   28.4,   28.3,   27.9,   28.5,   28.7,   29.7,  999.0,  999.0,  999.0,   31.6,  999.0,  999.0,  999.0,  999.0,  999.0,  999.0,  999.0,  999.0,  999.0,  999.0,  999.0,  999.0
2016/12/27 08:40,  999.0,   -0.1,    0.1,    1.0,    0.5,    1.6,    0.6,    1.3,    2.0,    1.7,    3.5,  999.0,  999.0,    0.4,    0.3,    0.1,    0.0,    0.2,    0.0,   -0.1,   -0.2,  999.0,  999.0,  999.0,    0.5,  999.0,    0.1,  999.0,  999.0,  999.0,  999.0,  999.0,  999.0,  999.0,  999.0,  999.0,   30.0,   31.6,   32.3,   32.3,   31.7,   31.9,   31.6,   32.3,   31.5,   30.8,   31.3,   32.4,   33.9,   33.1,   34.1,  999.0,   31.4,  999.0,  999.0,  999.0,   28.1,  999.0,   28.4,  999.0,  999.0,  999.0,  999.0,  999.0,  999.0,  999.0,  999.0,  999.0,  999.0,  999.0,  999.0,  999.0,  999.0,  999.0,  999.0,  999.0,  999.0,  999.0,  999.0,  999.0
2016/12/27 08:50,  999.0,    0.2,    0.0,   -0.1,   -0.1,   -0.1,   -0.6,    0.9,    2.0,    3.3,    4.5,    4.6,    1.7,    1.5,    0.4,    0.3,    0.1,    0.0,    0.0,    0.1,  999.0,    0.8,   -1.5,    0.2,  999.0,  999.0,    0.2,    0.8,  999.0,  999.0,  999.0,  999.0,  999.0,  999.0,  999.0,  999.0,  999.0,  999.0,  999.0,  999.0,  999.0,  999.0,  999.0,  999.0,  999.0,  999.0,   31.1,  999.0,  999.0,   31.4,   30.9,  999.0,  999.0,   30.8,   30.9,   30.3,  999.0,   28.6,   29.0,   28.6,  999.0,  999.0,  999.0,  999.0,  999.0,  999.0,  999.0,  999.0,  999.0,  999.0,  999.0,  999.0,  999.0,  999.0,  999.0,  999.0,  999.0,  999.0,  999.0,  999.0
2016/12/27 09:00,  999.0,   -0.6,    0.2,    0.4,   -0.1,   -0.3,    0.5,    1.5,    2.4,    2.7,    3.6,    3.8,  999.0,    2.1,    0.6,    0.6,    0.4,   -0.1,    0.1,    0.9,    1.2,  999.0,  999.0,  999.0,    0.2,    0.1,    0.1,    0.1,   -0.5,    0.1,  999.0,  999.0,  999.0,  999.0,  999.0,  999.0,   29.4,   30.8,   30.5,   31.1,   31.2,   30.6,   30.5,   30.2,   30.9,   31.9,   31.5,   31.2,   30.8,   30.7,   30.8,   30.8,   30.8,   31.1,   29.8,   30.1,   29.6,   29.5,  999.0,  999.0,  999.0,  999.0,  999.0,  999.0,  999.0,  999.0,  999.0,  999.0,  999.0,  999.0,  999.0,  999.0,  999.0,  999.0,  999.0,  999.0,  999.0,  999.0,  999.0,  999.0
2016/12/27 09:10,  999.0,   -0.6,    0.0,   -0.1,   -0.4,  999.0,   -0.4,    2.0,    4.0,    4.4,    5.0,    8.8,    6.1,    5.5,    8.1,   10.5,   11.4,   14.8,   16.2,  999.0,  999.0,   20.5,   21.5,   23.5,   26.5,  999.0,  999.0,  999.0,  999.0,   25.4,   26.9,   27.7,   28.6,   28.6,   28.6,   29.8,   30.7,   31.0,   31.1,   30.5,   30.2,   30.4,   30.7,   30.7,   30.9,   31.0,   30.1,   29.3,   30.6,   31.2,   31.0,   30.8,   31.2,  999.0,  999.0,  999.0,  999.0,  999.0,  999.0,  999.0,  999.0,   -1.9,  999.0,  999.0,  999.0,  999.0,  999.0,  999.0,  999.0,  999.0,  999.0,  999.0,  999.0,  999.0,  999.0,  999.0,  999.0,  999.0,  999.0,  999.0
2016/12/27 09:20,  999.0,   -0.2,   -0.2,    3.4,  999.0,  999.0,  999.0,   10.7,    8.3,    5.5,    7.3,    8.1,   10.0,    9.6,   10.9,    9.9,   10.8,   12.7,   14.7,   16.9,   19.0,   19.4,   21.4,   22.8,   25.3,  999.0,   25.4,   23.7,   24.1,   26.1,   26.6,   28.3,   28.9,   28.8,   30.3,   30.5,   30.7,   30.9,   30.7,   30.6,   30.3,   30.0,   29.7,   29.8,   29.9,   30.7,   30.9,   30.8,   31.2,   31.5,   31.5,   31.4,   32.2,   32.6,   31.9,   32.4,   32.7,   33.9,  999.0,  999.0,  999.0,   31.8,   33.2,   30.8,  999.0,   30.1,  999.0,  999.0,  999.0,  999.0,  999.0,  999.0,  999.0,  999.0,  999.0,  999.0,  999.0,  999.0,  999.0,  999.0
2016/12/27 09:30,  999.0,  999.0,    0.6,    0.7,   -0.5,  999.0,  999.0,  999.0,    1.8,    2.3,    3.5,    5.3,    7.0,    8.7,    8.5,    9.0,   10.7,   12.8,   14.4,   16.2,   16.9,   18.8,   21.7,   22.9,   25.5,   26.8,   26.1,   24.0,   23.4,   24.1,   25.7,   27.8,   29.8,   30.8,   31.7,   31.5,   31.6,   31.3,   30.9,   31.4,   31.2,   30.9,   30.7,   31.0,   32.1,   33.1,   33.3,   33.1,   32.7,   32.4,   31.6,   31.2,   30.6,   30.8,   30.5,   31.8,   32.4,   33.2,   33.6,   32.4,   30.5,  999.0,  999.0,  999.0,  999.0,  999.0,  999.0,  999.0,  999.0,  999.0,  999.0,  999.0,  999.0,  999.0,  999.0,  999.0,  999.0,  999.0,  999.0,  999.0
2016/12/27 09:40,  999.0,    0.4,    0.5,    0.9,    0.2,    1.0,    0.5,    2.0,    4.6,    5.8,    6.2,    7.4,    8.6,    9.8,    9.1,    9.7,   11.7,   13.8,   16.3,   18.0,   17.2,   18.1,   21.1,   22.9,   24.7,   25.9,   25.5,   23.4,   23.9,   25.6,   27.9,   29.1,   29.0,   29.8,   30.7,   31.1,   31.2,   31.5,   31.2,   31.5,   31.4,   31.1,   31.4,   31.7,   32.4,   32.7,   32.4,   32.3,   32.2,   32.3,   31.7,   30.4,   30.0,   30.2,   30.5,   31.3,   32.9,   33.2,   32.0,   29.4,   28.3,   27.1,   27.9,   28.3,  999.0,   29.1,  999.0,  999.0,  999.0,  999.0,  999.0,  999.0,  999.0,  999.0,  999.0,  999.0,  999.0,  999.0,  999.0,  999.0
2016/12/27 09:50,  999.0,   -0.9,    0.9,    2.1,    0.9,    1.1,    3.0,    4.7,    6.7,    7.1,    8.5,   10.1,   10.0,   10.3,   10.3,   10.6,   12.4,   13.9,   16.2,   17.4,   15.2,  999.0,   21.3,   23.3,   25.5,   26.2,   24.8,   23.4,   24.9,   26.7,   27.8,   28.9,   29.0,   30.2,   31.0,   30.8,   30.8,   32.0,   31.2,   31.7,   31.9,   31.1,   31.3,   31.7,   31.4,   31.3,   31.4,   31.2,   30.7,   29.8,   30.4,   30.5,   31.9,   32.3,   32.1,   32.3,   31.4,   30.0,   28.8,   28.1,   27.1,   27.9,   28.2,   29.0,   30.0,   29.6,   29.7,  999.0,  999.0,  999.0,  999.0,  999.0,  999.0,  999.0,  999.0,  999.0,  999.0,  999.0,  999.0,  999.0
2016/12/27 10:00,  999.0,    0.2,    2.2,    2.8,    2.7,    2.3,    2.1,    4.5,    6.4,    7.7,    8.8,   10.1,    9.9,    9.1,    8.3,    8.8,   11.5,   13.8,   16.0,   16.6,   16.6,  999.0,   22.1,   22.8,   24.4,   25.1,   24.1,   24.2,   26.3,   27.5,   28.4,   28.4,   28.8,   30.1,   30.1,   30.2,   30.9,   31.4,   31.3,   31.4,   31.3,   31.1,   31.2,   31.0,   31.2,   31.7,   31.7,   31.2,   31.1,   31.0,   30.7,   30.8,   31.1,   32.8,   32.6,   30.7,   29.3,   27.9,   26.8,   26.7,   26.9,   27.2,   28.2,   29.3,  999.0,  999.0,  999.0,  999.0,  999.0,  999.0,  999.0,  999.0,  999.0,  999.0,  999.0,  999.0,  999.0,  999.0,  999.0,  999.0
2016/12/27 10:10,  999.0,    0.4,    1.3,    1.7,    0.7,    0.9,    2.1,    4.3,    6.1,    7.6,    8.9,    9.9,    9.7,    9.2,    9.3,   10.8,   12.8,   14.7,   16.0,   17.7,   18.0,  999.0,   22.7,   25.0,   24.9,   24.8,   24.4,   25.7,   26.9,   28.2,   28.4,   28.4,   28.1,   28.8,   29.0,   29.8,   30.2,   31.0,   31.1,   31.2,   30.8,   30.1,   29.9,   30.2,   31.0,   31.6,   31.5,   31.3,   30.9,   31.1,   31.0,   19.5,   20.1,   -5.5,   30.8,   29.5,   28.2,   27.4,   27.2,  999.0,  999.0,  999.0,  999.0,  -20.5,  -22.1,  -21.1,  -20.7,  -21.1,  -22.4,  999.0,  -23.4,  999.0,  -21.1,  999.0,  999.0,  999.0,  999.0,  999.0,  999.0,  999.0
2016/12/27 10:20,  999.0,   -0.3,    1.5,    1.6,    1.2,    1.4,    2.0,    4.9,    7.1,    8.2,    9.6,   10.8,    9.9,    9.1,    9.7,   11.1,   12.8,   14.3,   15.9,   18.1,   19.3,   20.3,  999.0,   24.2,   23.8,   24.3,   25.4,   26.8,   26.9,   26.6,   26.8,   26.8,   27.3,   28.2,   29.9,   30.5,   30.8,   30.4,   29.6,   28.9,   28.8,   28.9,   29.3,   29.7,   30.0,   30.0,   31.0,  999.0,  999.0,  999.0,  999.0,  -21.6,  -21.3,  -21.7,  -22.5,  -23.6,  -23.4,  -24.4,  -22.8,  -22.7,  -22.5,  -22.2,  -22.3,  -23.3,  -22.1,  999.0,  999.0,  999.0,  999.0,  999.0,  999.0,  999.0,  999.0,  999.0,  999.0,  999.0,  999.0,  999.0,  999.0,  999.0
2016/12/27 10:30,  999.0,   -0.8,    0.5,    1.7,    0.9,    0.2,    2.5,    5.6,    7.5,    8.9,   10.5,   10.2,    8.5,    8.7,    9.4,   10.3,   11.8,   13.7,   15.9,   18.0,   19.0,   19.7,   20.7,   22.9,   24.2,   25.4,   25.3,   25.1,   24.8,   25.1,   26.2,   27.2,   28.1,   29.0,   28.8,   29.0,   28.9,   29.2,   30.1,   30.7,   31.1,   32.0,   32.7,   33.7,   33.3,   33.5,   33.2,   33.5,   33.2,  999.0,  999.0,  999.0,  999.0,  999.0,  999.0,  -20.7,  -20.8,  -20.9,  -19.6,  -20.5,  -21.2,  -21.3,  -21.6,  -21.4,  -20.5,  -21.2,  999.0,  999.0,  999.0,  999.0,  999.0,  999.0,  999.0,  999.0,  999.0,  999.0,  999.0,  999.0,  999.0,  999.0
2016/12/27 10:40,  999.0,    1.3,    0.0,    1.7,    3.0,    2.2,    2.7,    5.1,    6.9,    7.7,    8.1,    8.7,    8.9,   10.0,   10.2,   10.5,   11.9,   13.5,   15.0,   16.4,   17.9,   18.3,   20.5,   22.9,   23.7,   24.4,   24.8,   25.0,   25.5,   26.5,   26.7,   26.6,   26.5,   26.5,   26.0,   26.9,   28.4,   29.3,   30.7,   33.0,   34.2,   36.0,   36.3,   36.9,   36.2,   35.0,   33.5,   33.0,   32.5,   32.1,   33.5,  999.0,  999.0,  999.0,  -19.3,  -19.6,  -19.1,  -19.0,  -18.1,  -17.7,  -18.8,  -19.4,  -20.1,  -20.4,  999.0,  999.0,  999.0,  999.0,  999.0,  999.0,  999.0,  999.0,  999.0,  999.0,  999.0,  999.0,  999.0,  999.0,  999.0,  999.0
2016/12/27 10:50,  999.0,    1.5,    1.6,    2.7,    3.4,    3.5,    4.3,    5.6,    5.9,    5.8,    6.3,    6.5,    6.6,    8.0,    8.2,    9.7,   11.2,   12.9,   12.5,   13.3,   17.1,   17.6,   20.3,   22.0,   22.5,   23.3,   23.1,   23.3,   23.8,   25.3,   25.7,   25.2,   24.9,   25.5,   27.0,   29.0,   31.3,   31.7,   34.6,   35.9,   36.2,  999.0,  999.0,   37.2,   35.1,   33.7,   33.9,  999.0,  999.0,  -17.3,  -18.5,  -20.1,  -19.9,  -20.6,  -20.9,  -22.3,  -22.5,  -21.3,  999.0,  -20.2,  -20.1,  -18.0,  -18.2,  -19.5,  999.0,  999.0,  999.0,  999.0,  999.0,  999.0,  999.0,  999.0,  999.0,  999.0,  999.0,  999.0,  999.0,  999.0,  999.0,  999.0
2016/12/27 11:00,  999.0,    1.3,    2.3,    3.5,    2.9,    4.0,    3.4,    3.7,    3.1,    2.6,    4.8,    7.3,    7.1,    8.1,    8.5,    9.3,   11.0,   12.6,   12.8,   14.1,   15.5,   16.8,   18.9,   20.2,   21.1,   22.4,   23.1,   23.4,   23.8,   25.3,   25.1,   25.3,  999.0,  999.0,  999.0,  999.0,  999.0,  999.0,  999.0,  999.0,  999.0,  999.0,  999.0,  999.0,   -1.1,   -0.8,  999.0,  999.0,  -19.7,  -19.9,  -21.2,  -20.7,  -20.1,  -20.7,  -22.0,  -22.4,  -22.3,  -22.1,  -20.4,  -19.6,  -17.3,  -17.4,  -16.3,  999.0,  -19.1,  -20.6,  999.0,  999.0,  999.0,  999.0,  999.0,  999.0,  999.0,  999.0,  999.0,  999.0,  999.0,  999.0,  999.0,  999.0
2016/12/27 11:10,  999.0,    3.2,    3.7,    3.5,    2.7,    3.7,    4.2,    4.7,    5.6,    6.2,    8.2,    9.0,    9.3,    9.1,    9.9,    9.2,    9.4,   10.9,   11.5,   12.4,   14.2,   16.2,   18.5,   19.3,   20.7,   22.2,   21.9,   22.2,   24.2,  999.0,  999.0,  999.0,  999.0,  999.0,  999.0,  999.0,  999.0,  999.0,  999.0,  999.0,  999.0,  999.0,  999.0,  999.0,  999.0,  -18.4,  -16.5,  -15.7,  -16.6,  -16.8,  -18.0,  -19.6,  -21.8,  -22.8,  -21.9,  -22.0,  -20.1,  -18.7,  -17.2,  -16.0,  -15.6,  999.0,  -17.1,  -18.7,  999.0,  999.0,  999.0,  999.0,  999.0,  999.0,  999.0,  999.0,  999.0,  999.0,  999.0,  999.0,  999.0,  999.0,  999.0,  999.0
2016/12/27 11:20,  999.0,  999.0,  999.0,    5.5,    4.0,    3.5,    2.6,    4.7,    7.4,    8.6,    9.5,   10.5,   10.8,    9.7,    9.9,   10.3,    9.0,    9.0,    9.8,   11.3,   12.2,   14.3,   16.9,   18.1,   18.2,   17.8,   19.1,   21.0,   22.0,   21.6,   21.3,  999.0,  999.0,  999.0,  999.0,  999.0,  999.0,  999.0,  999.0,  999.0,  999.0,   33.3,   34.4,  999.0,  999.0,  999.0,  999.0,  999.0,  -14.4,  -15.8,  -17.8,  -18.5,  -19.3,  -20.6,  -23.1,  -22.5,  -21.5,  -19.5,  999.0,  999.0,  999.0,  999.0,  999.0,  999.0,  999.0,  999.0,  999.0,  999.0,  999.0,  999.0,  999.0,  999.0,  999.0,  999.0,  999.0,  999.0,  999.0,  999.0,  999.0,  999.0
2016/12/27 11:30,  999.0,  999.0,   20.5,   12.9,   11.9,   12.3,   11.8,   17.9,   16.3,   12.3,   13.0,   12.0,   10.7,   10.8,   10.1,    8.9,    9.2,    8.6,    7.8,    8.6,   10.5,   12.1,   13.5,   15.1,   16.5,   17.7,   18.1,   17.9,   19.0,   20.5,   21.2,   22.6,   23.3,   23.9,  999.0,  999.0,  999.0,  999.0,  999.0,   32.4,  999.0,  999.0,  999.0,  999.0,  999.0,  999.0,  999.0,  999.0,  999.0,  999.0,  999.0,  999.0,  999.0,  999.0,  999.0,  999.0,  999.0,  999.0,  999.0,  999.0,  999.0,  999.0,  999.0,  999.0,  999.0,  999.0,  999.0,  999.0,  999.0,  999.0,  999.0,  999.0,  999.0,  999.0,  999.0,  999.0,  999.0,  999.0,  999.0,  999.0
2016/12/27 11:40,  999.0,    4.6,    5.7,    6.3,    6.3,    7.4,    8.4,    8.3,    8.1,    8.0,    7.8,    9.4,   12.0,   11.3,   12.2,   13.1,   11.3,    9.4,    8.9,    8.6,    9.6,   11.3,   12.5,   14.1,   14.9,   15.5,   17.2,   19.0,   19.3,   19.2,   20.3,   21.0,  999.0,  999.0,  999.0,  999.0,  999.0,  999.0,  999.0,  999.0,  999.0,  999.0,  999.0,  999.0,  999.0,  999.0,  999.0,  999.0,  999.0,  999.0,  999.0,  999.0,  999.0,  999.0,  999.0,  999.0,  999.0,  999.0,  999.0,  999.0,  999.0,  999.0,  999.0,  999.0,  999.0,  999.0,  999.0,  999.0,  999.0,  999.0,  999.0,  999.0,  999.0,  999.0,  999.0,  999.0,  999.0,  999.0,  999.0,  999.0
2016/12/27 11:50,  999.0,  999.0,  999.0,  999.0,  999.0,    5.2,    6.5,    8.5,   11.6,  999.0,   11.6,   14.4,   14.7,   13.3,   13.3,   10.7,   10.1,   11.3,   10.5,    9.8,   10.0,   11.0,   12.1,   13.3,   14.0,   15.1,   15.3,   16.8,   17.9,   19.9,   18.7,  999.0,  999.0,  999.0,  999.0,  999.0,  999.0,  999.0,  999.0,  999.0,  999.0,  999.0,  999.0,  999.0,  999.0,  999.0,  999.0,  999.0,  999.0,  999.0,  999.0,  999.0,  999.0,  999.0,  999.0,  999.0,  999.0,  999.0,  999.0,  999.0,  999.0,  999.0,  999.0,  999.0,  999.0,  999.0,  999.0,  999.0,  999.0,  999.0,  999.0,  999.0,  999.0,  999.0,  999.0,  999.0,  999.0,  999.0,  999.0,  999.0
2016/12/27 12:00,  999.0,  999.0,   -0.4,   -0.2,   -0.0,   -0.0,    2.1,    6.0,    7.4,   10.0,    9.8,   12.5,   10.1,   13.9,   14.3,   14.3,   12.4,   13.7,   11.2,    9.1,    8.8,    7.8,    7.3,    7.4,    8.5,   10.4,   12.5,   10.8,    7.9,   -0.2,    4.6,   -0.5,  999.0,  999.0,    0.1,  999.0,  999.0,  999.0,  999.0,  999.0,  999.0,  999.0,  999.0,  999.0,  999.0,  999.0,   -0.1,  999.0,  999.0,  999.0,  999.0,   -0.3,    0.0,   -0.4,   -0.2,   -0.2,   -0.6,    0.0,  999.0,  999.0,  999.0,    0.2,  999.0,  999.0,  999.0,  999.0,  999.0,  999.0,  999.0,  999.0,  999.0,  999.0,  999.0,  999.0,  999.0,  999.0,  999.0,  999.0,  999.0,  999.0
2016/12/27 12:10,  999.0,    0.0,   -0.1,   -0.1,    0.1,    0.2,    0.1,    0.1,    0.2,    0.7,    0.6,    0.4,    0.3,    0.1,    0.2,    0.2,   -0.1,    0.1,   -0.1,   -0.1,   -0.3,    0.4,    0.2,   -0.7,    1.1,   -0.1,   -0.1,    4.0,    2.1,   -0.3,   -0.1,   -0.3,   -0.4,   -0.2,    0.0,   -0.1,  999.0,  999.0,    0.3,    0.2,   -0.1,  999.0,    0.1,    0.0,   -0.1,  999.0,   -0.2,   -0.1,  999.0,    0.0,  999.0,  999.0,  999.0,   -0.2,    0.1,    0.0,  999.0,    0.3,  999.0,   -0.2,   -0.1,  999.0,  999.0,  999.0,  999.0,  999.0,  999.0,  999.0,  999.0,  999.0,  999.0,  999.0,  999.0,  999.0,  999.0,  999.0,  999.0,  999.0,  999.0,  999.0
2016/12/27 12:20,  999.0,    0.1,    0.2,   -0.1,   -0.2,   -0.2,    0.0,   -0.1,    0.1,    0.0,   -0.1,   -0.1,   -0.1,   -0.2,   -0.2,   -0.1,   -0.2,   -0.0,  999.0,   -0.0,   -0.2,   -0.5,   -0.5,   -0.5,   -0.2,    0.2,   -0.3,   -0.2,   -0.2,   -0.1,   -0.2,   -0.5,   -0.5,   -0.0,   -0.1,   -0.1,    0.0,    0.4,   -0.0,    0.3,    0.2,   -0.5,  999.0,   -0.1,  999.0,    0.6,    0.2,    0.2,    0.0,   -0.3,   -0.0,   -0.3,   -0.2,    0.1,  999.0,    0.2,    0.3,   -0.3,    0.3,  999.0,  999.0,  999.0,   -0.1,  999.0,    0.0,  999.0,  999.0,  999.0,  999.0,  999.0,  999.0,  999.0,  999.0,  999.0,  999.0,  999.0,  999.0,  999.0,  999.0,  999.0
2016/12/27 12:30,  999.0,    0.0,   -0.2,    0.0,    0.0,    0.4,    0.1,   -0.2,    0.3,    0.4,    0.5,    0.3,    0.2,    0.2,    0.5,    0.2,    0.2,    0.1,    0.1,    0.2,    0.1,    0.1,   -0.0,    0.5,    0.4,    1.0,    0.5,    0.2,    0.1,   -0.1,   -0.2,   -0.5,    0.0,   -0.0,    0.1,    0.0,   -0.2,    0.1,   -0.3,    0.0,   -0.3,   -0.3,   -0.4,   -0.3,   -0.0,    0.2,    0.3,   -0.1,    0.0,    0.1,  999.0,    0.1,    0.1,  999.0,   -0.1,   -0.2,   -0.3,   -0.2,    0.1,    0.1,    0.1,  999.0,  999.0,  999.0,   -0.2,   -0.1,  999.0,  999.0,  999.0,  999.0,  999.0,  999.0,  999.0,  999.0,  999.0,  999.0,  999.0,  999.0,  999.0,  999.0
2016/12/27 12:40,  999.0,    0.1,   -0.1,   -0.0,    0.1,    0.1,    0.0,    0.0,    0.1,    0.3,    0.3,    0.4,    0.5,    0.3,    0.2,    0.3,    0.4,    0.2,    0.8,    0.1,   -0.0,   -0.2,    0.2,    0.4,    0.3,    0.5,    0.1,   -0.0,    0.2,    0.0,   -0.2,   -0.1,    0.2,    0.0,    0.2,   -0.2,   -0.0,   -0.4,    0.0,   -0.2,   -0.8,   -0.4,  999.0,   -0.0,   -0.4,   -0.1,    0.8,    0.0,    0.2,   -0.1,    0.1,   -0.3,    0.0,   -0.3,    0.5,   -0.4,    0.2,   -0.2,   -0.2,  999.0,  999.0,  999.0,   -0.6,  999.0,  999.0,  999.0,  999.0,  999.0,  999.0,  999.0,  999.0,  999.0,  999.0,  999.0,  999.0,  999.0,  999.0,  999.0,  999.0,  999.0
2016/12/27 12:50,  999.0,    0.1,   -0.1,   -0.2,    0.0,    0.0,   -0.1,   -0.1,    0.2,    0.3,    0.7,    0.4,    0.3,    0.3,    0.2,    0.3,    0.1,    0.1,    0.3,    0.0,   -0.2,   -0.4,   -0.1,    0.5,    0.0,    0.2,   -0.4,    0.0,   -0.7,    0.1,   -0.5,   -0.2,    0.1,   -0.0,    0.2,   -0.5,    0.0,  999.0,   -0.1,   -0.1,   -0.5,   -0.3,   -0.1,   -0.1,   -0.1,   -0.1,   -0.2,   -0.2,   -0.1,  999.0,    0.1,    0.0,   -0.1,   -0.1,   -0.1,    0.1,   -0.0,    0.2,    0.0,   -0.0,  999.0,  999.0,    0.1,   -0.4,    0.0,   -0.0,    0.3,  999.0,  999.0,  999.0,  999.0,  999.0,  999.0,  999.0,  999.0,  999.0,  999.0,  999.0,  999.0,  999.0
2016/12/27 13:00,  999.0,  999.0,    0.2,   -0.1,  999.0,   -0.2,    0.0,    0.4,    0.1,    0.4,    0.7,    0.4,    0.2,    0.1,    0.2,    0.1,    0.0,    0.1,   -0.0,   -0.1,   -0.3,   -0.2,   -0.2,   -0.2,    3.9,    3.1,    3.4,    2.2,    3.6,    0.2,   -0.0,   -0.1,    0.1,    0.1,   -0.1,   -0.0,   -0.2,   -0.5,   -0.1,   -0.5,   -0.8,   -0.7,   -0.4,   -0.3,    0.2,    0.0,   -0.1,    0.1,   -0.1,   -0.1,    0.1,    0.5,    0.2,    0.2,    0.1,   -0.1,    0.1,   -0.1,   -0.0,   -0.3,   -0.0,    0.1,    0.1,    0.4,   -0.1,   -0.5,  999.0,  999.0,  999.0,  999.0,    0.1,  999.0,  999.0,  999.0,  999.0,  999.0,  999.0,  999.0,  999.0,  999.0
2016/12/27 13:10,  999.0,   -0.0,    0.1,   -0.0,  999.0,  999.0,    0.1,  999.0,   -0.0,    0.4,    0.8,    0.3,   -0.2,    0.3,  999.0,    0.1,    0.1,    3.4,    4.5,    4.8,   -0.2,   -0.3,    3.1,    6.3,    7.4,    4.1,    3.7,    6.6,    6.3,    6.6,    7.2,   -0.6,   -0.3,    0.0,   -0.1,    0.1,    0.0,    0.0,    0.1,    0.1,   -0.2,   -0.3,   -0.1,   -0.0,    0.0,   -0.0,    0.0,   -0.0,    0.0,   -0.2,    0.2,   -0.0,   -0.1,   -0.2,   -0.1,   -0.1,    0.1,   -0.0,    0.2,   -0.1,    0.1,    0.0,   -0.0,   -0.3,   -0.2,  999.0,   -0.1,  999.0,   -0.1,  999.0,   -0.1,    0.2,   -0.1,  999.0,  999.0,  999.0,  999.0,  999.0,  999.0,  999.0
2016/12/27 13:20,  999.0,  999.0,   -0.1,   -0.0,  999.0,   -0.1,    0.1,   -0.2,    0.1,    0.1,    0.2,    0.0,   -0.1,    0.1,    0.2,    0.1,  999.0,  999.0,    0.0,    0.1,  999.0,   -0.3,    0.0,   -0.1,   -0.1,   -0.2,   -0.7,   -0.3,   -0.1,   -0.4,   -0.5,   -0.0,   -0.0,   -0.1,   -0.2,   -0.1,   -0.0,   -0.0,    0.2,    0.0,   -0.4,   -0.5,    0.1,    0.1,    0.1,   -0.1,    0.0,   -0.0,    0.1,  999.0,    0.1,   -0.3,   -0.1,    0.1,   -0.0,   -0.0,    0.0,   -0.3,   -0.4,   -0.2,    0.1,    0.1,   -0.0,   -0.1,    0.1,    0.2,    0.3,    0.2,    0.4,   -0.1,    0.1,   -0.0,   -0.1,   -0.2,   -0.4,  999.0,  999.0,  999.0,  999.0,  999.0
2016/12/27 13:30,  999.0,  999.0,   -0.1,   -0.0,    0.1,    0.0,   -0.0,    0.0,    0.1,    0.1,    0.1,  999.0,  999.0,  999.0,  999.0,  999.0,  999.0,  999.0,  999.0,    0.1,   -0.1,   -0.0,   -0.1,    0.1,   -0.2,   -0.1,    0.4,    0.1,    0.0,   -0.3,   -0.1,   -0.0,    0.2,    0.1,   -0.0,   -0.1,    0.0,    0.0,    0.1,   -0.0,   -0.2,   -0.2,    0.1,    0.1,    0.0,    0.1,    0.1,   -0.0,    0.1,    0.2,    0.2,   -0.1,   -0.0,   -0.1,   -0.1,   -0.2,    0.1,   -0.0,    0.0,   -0.0,   -0.1,   -0.0,   -0.1,   -0.2,    0.2,    0.2,   -0.2,   -0.4,    0.0,    0.2,    0.0,    0.1,   -0.1,    0.1,   -0.3,  999.0,  999.0,  999.0,  999.0,  999.0
2016/12/27 13:40,  999.0,  999.0,   -0.1,   -0.0,    0.1,   -0.0,    0.0,    0.0,    0.1,    0.0,    0.3,    0.6,    0.6,    0.3,    0.1,    0.0,    0.1,    0.0,  999.0,   -0.2,   -0.2,   -0.0,   -0.0,  999.0,    0.2,    0.6,    0.1,    0.2,   -0.1,    0.1,   -0.0,    0.1,    0.2,   -0.0,   -0.2,    0.1,    0.0,    0.0,   -0.0,   -0.1,   -0.3,   -0.1,    0.1,   -0.1,   -0.0,   -0.1,   -0.0,    0.0,    0.0,   -0.1,   -0.0,    0.0,   -0.0,    0.1,   -0.0,   -0.1,   -0.2,    0.0,    0.1,    0.1,    0.0,    0.0,   -0.1,   -0.1,    0.2,   -0.3,   -0.1,   -0.2,    0.0,   -0.1,   -0.1,   -0.1,   -0.1,   -0.4,   -0.1,  999.0,  999.0,  999.0,  999.0,  999.0
2016/12/27 13:50,  999.0,    0.2,   -0.1,    0.0,   -0.0,   -0.0,   -0.0,    0.1,    0.1,    0.0,    0.1,    0.2,    0.4,    0.6,    0.4,  999.0,    0.2,   -0.0,  999.0,    0.0,    0.1,    0.1,    0.2,    0.4,    0.4,    0.9,    0.7,    0.8,    0.6,    0.2,    0.2,   -0.0,    0.0,   -0.1,    0.0,    0.0,    0.0,    0.1,    0.1,    0.0,   -0.4,   -0.3,   -0.1,   -0.0,    0.0,   -0.0,   -0.1,    0.2,    0.2,    0.1,    0.0,    0.0,   -0.1,   -0.0,   -0.2,    0.0,   -0.1,    0.1,   -0.1,    0.1,    0.1,    0.1,   -0.3,    0.0,   -0.1,   -0.2,   -0.4,  999.0,    0.0,    0.1,    0.2,    0.3,    0.1,   -0.0,    0.0,  999.0,  999.0,  999.0,  999.0,  999.0
2016/12/27 14:00,  999.0,    0.0,    0.2,    0.0,    0.2,   -0.1,    0.0,    0.1,    0.0,    0.1,    0.3,    0.5,    0.5,    0.6,    0.6,   -0.2,    0.1,    0.2,   -0.1,    0.0,    0.2,    0.7,    1.0,    0.5,    0.4,    0.1,    0.2,    0.2,    0.2,    0.1,    0.1,    0.1,   -0.0,    0.2,    0.1,    0.1,   -0.1,   -0.2,  999.0,   -0.2,   -0.4,   -0.2,    0.0,   -0.3,    0.1,    0.3,    0.1,    0.1,    0.2,  999.0,   -0.1,    0.4,   -0.0,    0.2,    0.0,    0.1,    0.1,    0.1,   -0.0,    0.2,    0.2,    0.7,    0.4,   -0.0,   -0.2,  999.0,    0.1,    0.1,    0.2,   -0.1,    0.0,   -0.0,   -0.1,  999.0,  999.0,  999.0,  999.0,  999.0,  999.0,  999.0
2016/12/27 14:10,  999.0,    0.0,    0.0,    0.2,    0.0,    0.3,    0.0,    0.1,    0.1,    0.1,   -0.1,   -0.1,    0.0,    0.5,    0.6,    0.5,    0.1,    0.3,    0.2,    0.3,    0.2,    0.1,    0.1,   -0.1,    0.0,    0.0,    0.1,   -0.0,   -0.1,    0.2,    0.1,   -0.1,    0.0,   -0.0,    0.0,   -0.0,   -0.1,    0.1,   -0.2,   -0.2,   -0.6,   -0.2,   -0.1,    0.2,   -0.3,   -0.0,   -0.0,   -0.1,    0.1,    0.2,   -0.1,   -0.3,    0.4,    0.2,   -0.1,    0.0,  999.0,    0.5,   -0.1,    0.3,    0.3,  999.0,    0.2,    0.1,   -0.0,   -0.1,    0.1,   -0.1,    0.2,   -0.1,   -0.2,   -0.2,  999.0,  999.0,   -0.2,  999.0,  999.0,  999.0,  999.0,  999.0
2016/12/27 14:20,  999.0,   -0.1,   -0.2,   -0.3,   -0.1,  999.0,    0.1,  999.0,    0.2,    0.2,    0.2,    0.2,    0.4,    0.3,    0.5,  999.0,  999.0,    0.2,    0.1,    0.2,  999.0,    0.1,    0.0,    0.1,    0.1,    0.1,    0.0,   -0.1,    0.0,    0.0,    0.1,   -0.0,   -0.1,   -0.0,    0.0,    0.1,   -0.1,   -0.1,   -0.1,   -0.1,   -0.5,   -0.4,   -0.3,   -0.1,    0.2,   -0.1,    0.1,    0.2,    0.1,    0.2,    0.0,    0.0,    0.0,    0.1,   -0.1,   -0.0,    0.0,   -0.1,   -0.2,   -0.4,   -0.5,    0.2,    0.1,   -0.3,   -0.2,  999.0,  999.0,   -0.3,   -0.1,    0.1,   -0.1,    0.1,    0.3,  999.0,    0.0,  999.0,  999.0,  999.0,  999.0,  999.0
2016/12/27 14:30,  999.0,  999.0,    0.0,    0.0,    0.0,  999.0,    0.3,  999.0,    0.1,    0.0,    0.1,    0.2,    0.4,    0.7,    0.9,    0.3,    0.2,    0.2,    0.1,    0.1,   -0.1,   -0.0,    0.1,    0.1,    0.0,    0.0,    0.0,    0.2,   -0.1,    0.2,    0.0,   -0.2,   -0.2,   -0.1,   -0.3,   -0.1,   -0.1,   -0.2,   -0.2,   -0.0,   -0.1,   -0.1,    0.1,    0.1,   -0.0,   -0.1,    0.0,   -0.1,    0.0,   -0.2,    0.0,   -0.1,   -0.1,    0.2,   -0.0,   -0.2,   -0.1,   -0.0,   -0.0,    0.2,    0.0,   -0.0,   -0.1,   -0.1,    0.2,    0.1,    0.0,    0.0,    0.2,   -0.1,   -0.0,   -0.1,   -0.2,    0.0,  999.0,  999.0,  999.0,  999.0,  999.0,  999.0
2016/12/27 14:40,  999.0,  999.0,   -0.1,   -0.0,    0.0,    0.1,   -0.0,  999.0,    0.1,   -0.2,   -0.0,    0.2,    0.5,    0.2,    0.3,    0.1,    0.1,    0.0,   -0.0,    0.0,    0.1,    0.1,    0.1,   -0.0,   -0.0,   -0.0,   -0.1,   -0.0,    0.0,    0.1,    0.2,    0.1,    0.1,    0.1,    0.1,    0.0,   -0.0,    0.0,    0.2,   -0.1,   -0.2,   -0.3,   -0.1,   -0.2,   -0.0,    0.1,    0.2,   -0.1,   -0.0,   -0.1,    0.1,    0.1,    0.0,    0.1,    0.1,   -0.1,    0.0,    0.1,   -0.2,   -0.1,   -0.3,    0.1,   -0.1,   -0.2,    0.1,   -0.3,    0.3,   -0.1,   -0.1,    0.1,    0.4,    0.0,    0.1,    0.1,   -0.2,  999.0,  999.0,  999.0,  999.0,  999.0
2016/12/27 14:50,  999.0,  999.0,    0.0,   -0.0,  999.0,   -0.1,   -0.0,   -0.0,    0.0,   -0.0,   -0.0,    0.0,    0.0,   -0.0,   -0.1,   -0.1,    0.1,    0.1,    0.0,   -0.1,   -0.0,    0.1,   -0.1,   -0.0,    0.0,    0.1,   -0.1,   -0.0,   -0.1,   -0.2,    0.2,   -0.0,    0.2,    0.1,   -0.0,    0.1,    0.0,   -0.0,    0.1,    0.0,   -0.1,   -0.1,   -0.1,    0.0,    0.0,    0.0,    0.1,    0.1,   -0.0,   -0.0,   -0.1,   -0.2,   -0.0,    0.0,    0.2,    0.0,    0.1,    0.1,   -0.1,    0.1,    0.1,   -0.1,   -0.1,   -0.2,    0.2,    0.2,    0.0,    0.1,    0.2,    0.3,  999.0,  999.0,    0.0,   -0.2,   -0.0,  999.0,  999.0,  999.0,  999.0,  999.0
2016/12/27 15:00,  999.0,    0.3,   -0.0,   -0.1,   -0.0,   -0.1,   -0.0,    0.1,   -0.1,   -0.1,   -0.1,    0.2,   -0.0,    0.1,    0.2,    0.3,  999.0,    0.2,    0.8,    0.3,  999.0,   -0.1,   -0.0,   -0.1,   -0.0,    0.0,    0.0,   -0.1,   -0.0,   -0.0,   -0.1,   -0.1,    0.0,   -0.1,   -0.0,   -0.0,   -0.0,   -0.0,   -0.2,   -0.1,   -0.0,   -0.0,    0.0,    0.0,    0.0,    0.0,   -0.0,    0.0,   -0.0,   -0.0,   -0.0,   -0.2,   -0.0,   -0.0,   -0.2,   -0.1,    0.0,    0.1,    0.2,    0.1,    0.0,    0.0,    0.0,    0.0,    0.1,   -0.1,   -0.1,   -0.0,    0.2,  999.0,   -0.1,    0.0,    0.1,   -0.0,   -0.1,  999.0,  999.0,  999.0,  999.0,  999.0
2016/12/27 15:10,  999.0,  999.0,   -0.1,   -0.0,   -0.1,   -0.0,    0.1,    0.1,    0.1,    0.0,   -0.0,    0.0,   -0.0,    0.1,  999.0,  999.0,  999.0,  999.0,    0.2,   -0.0,    0.0,    0.1,    0.1,    0.1,    0.0,    0.0,   -0.0,   -0.0,    0.1,   -0.0,   -0.1,    0.1,    0.0,    0.0,    0.1,    0.1,    0.0,    0.0,   -0.1,    0.0,   -0.0,   -0.1,   -0.0,    0.0,    0.1,    0.1,    0.0,    0.1,   -0.1,   -0.0,   -0.1,   -0.1,    0.0,   -0.1,   -0.1,   -0.2,   -0.0,   -0.0,    0.1,   -0.1,    0.0,    0.0,   -0.0,   -0.0,    0.2,   -0.0,    0.0,    0.1,  999.0,   -0.2,   -0.1,   -0.0,    0.2,    0.1,    0.2,  999.0,  999.0,  999.0,  999.0,  999.0
2016/12/27 15:20,  999.0,  999.0,   -0.0,   -0.0,    0.0,    0.1,    0.0,    0.0,   -0.1,    0.0,   -0.0,    0.0,    0.0,    0.1,   -0.0,  999.0,  999.0,   -0.1,  999.0,    0.0,    0.1,    0.2,   -0.0,   -0.1,    0.1,    0.1,    0.1,    0.0,   -0.0,    0.0,    0.0,   -0.0,    0.1,   -0.0,    0.1,   -0.1,   -0.1,   -0.0,   -0.1,   -0.1,   -0.1,    0.1,    0.0,   -0.0,    0.1,   -0.0,   -0.1,    0.0,   -0.0,   -0.1,   -0.0,   -0.1,   -0.1,   -0.1,   -0.0,   -0.1,    0.0,    0.0,   -0.1,   -0.0,    0.0,   -0.1,   -0.2,   -0.2,   -0.1,   -0.0,   -0.0,    0.1,    0.1,   -0.1,    0.1,    0.2,    0.1,   -0.0,    0.4,  999.0,  999.0,  999.0,  999.0,  999.0
2016/12/27 15:30,  999.0,  999.0,   -0.0,    0.0,    0.1,    0.2,    0.0,   -0.0,  999.0,    0.1,    0.1,    0.1,   -0.1,   -0.1,   -0.0,    0.1,    0.2,   -0.0,    0.1,   -0.0,   -0.0,   -0.1,   -0.1,   -0.0,    0.0,    0.0,   -0.0,   -0.0,    0.1,   -0.0,   -0.1,   -0.1,   -0.0,   -0.0,    0.0,    0.1,    0.0,    0.0,   -0.0,   -0.1,   -0.1,   -0.0,   -0.1,    0.0,   -0.0,   -0.1,    0.1,   -0.0,   -0.0,   -0.1,    0.0,    0.0,   -0.1,   -0.1,   -0.0,    0.0,   -0.2,    0.2,   -0.1,    0.0,   -0.3,   -0.0,   -0.0,    0.0,  999.0,    0.1,    0.1,    0.1,    0.0,    0.2,   -0.1,   -0.0,   -0.0,    0.1,   -0.1,  999.0,  999.0,  999.0,  999.0,  999.0
2016/12/27 15:40,  999.0,    0.0,   -0.2,   -0.1,   -0.0,    0.1,    0.2,    0.1,    0.0,    0.1,    0.0,   -0.1,    0.0,    0.1,  999.0,  999.0,  999.0,  999.0,   -0.1,   -0.0,   -0.1,   -0.0,   -0.0,  999.0,    0.1,   -0.0,    0.0,    0.1,   -0.1,   -0.1,    0.0,   -0.1,   -0.1,   -0.1,   -0.1,    0.1,    0.1,   -0.0,    0.0,    0.1,   -0.2,   -0.0,   -0.0,   -0.1,   -0.1,    0.0,   -0.1,   -0.1,   -0.1,   -0.0,  999.0,    0.1,    0.1,   -0.1,   -0.0,    0.0,   -0.2,   -0.1,   -0.1,    0.1,    0.0,    0.2,    0.0,    0.3,  999.0,   -0.0,   -0.0,    0.0,    0.3,   -0.2,   -0.2,  999.0,   -0.0,    0.0,   -0.1,  999.0,  999.0,  999.0,  999.0,  999.0
2016/12/27 15:50,  999.0,  999.0,   -0.0,    0.1,    0.0,   -0.0,   -0.0,    0.0,    0.1,   -0.2,    0.1,    0.1,    0.0,    0.1,    0.1,    0.1,  999.0,  999.0,    0.0,   -0.1,   -0.0,    0.0,   -0.1,   -0.1,   -0.0,   -0.0,   -0.1,   -0.0,    0.1,    0.0,   -0.0,   -0.0,    0.0,    0.1,    0.0,    0.1,    0.0,   -0.0,    0.1,   -0.0,   -0.3,   -0.1,   -0.0,   -0.2,   -0.1,   -0.0,   -0.1,    0.0,    0.2,   -0.0,    0.2,    0.1,    0.1,   -0.0,    0.0,   -0.0,   -0.1,   -0.1,   -0.1,   -0.1,    0.2,   -0.1,    0.1,   -0.2,    0.0,    0.2,    0.1,    0.0,    0.1,  999.0,  999.0,  999.0,   -0.1,    0.1,   -0.3,  999.0,  999.0,  999.0,  999.0,  999.0
2016/12/27 16:00,  999.0,  999.0,    0.0,    0.1,    0.1,    0.2,    0.2,    0.1,  999.0,    0.0,   -0.0,   -0.0,   -0.0,  999.0,    0.0,    0.0,    0.0,    0.0,    0.1,    0.1,    0.0,    0.2,   -0.1,   -0.0,  999.0,   -0.2,    0.0,    0.0,    0.0,   -0.3,   -0.1,  999.0,   -0.1,   -0.0,   -0.1,   -0.0,   -0.1,   -0.1,   -0.0,   -0.1,   -0.2,   -0.1,    0.1,   -0.0,    0.1,    0.1,    0.1,    0.2,   -0.0,   -0.1,   -0.0,    0.0,    0.1,   -0.0,   -0.1,   -0.2,   -0.1,   -0.1,   -0.0,    0.1,    0.1,    0.1,    0.0,   -0.1,  999.0,   -0.1,    0.1,    0.1,   -0.1,   -0.2,    0.3,    0.0,   -0.1,   -0.1,   -0.0,  999.0,  999.0,  999.0,  999.0,  999.0
2016/12/27 16:10,  999.0,  999.0,    0.0,    0.0,   -0.0,   -0.0,    0.1,    0.0,   -0.1,   -0.1,   -0.1,   -0.0,    0.0,    0.1,    0.0,    0.1,  999.0,    0.2,    0.1,    0.1,   -0.0,    0.0,   -0.1,   -0.0,    0.1,    0.0,   -0.1,    0.0,   -0.1,   -0.1,   -0.0,    0.0,   -0.1,   -0.1,    0.4,    0.8,    1.0,    1.3,    0.2,    0.7,    0.3,   -0.3,   -0.0,    0.1,    0.1,    0.2,    0.3,    0.2,    0.1,    0.1,    0.1,   -0.1,   -0.0,   -0.0,    0.1,   -0.2,   -0.2,    0.1,   -0.0,    0.1,   -0.1,    0.1,    0.0,    0.1,   -0.3,    0.1,    0.1,   -0.1,   -0.1,   -0.1,   -0.2,    0.1,   -0.1,    0.1,  999.0,   -0.1,  999.0,  999.0,  999.0,  999.0
2016/12/27 16:20,  999.0,  999.0,   -0.1,    0.0,    0.1,   -0.0,    0.0,   -0.2,    0.0,    0.0,    0.1,   -0.0,  999.0,   -0.1,   -0.0,    0.1,    0.1,   -0.1,   -0.0,    0.0,   -0.0,   -0.0,    0.0,   -0.0,    0.0,    0.1,    0.0,   -0.0,    0.1,    0.1,    0.0,   -0.0,    0.1,   -0.2,  999.0,  999.0,  999.0,  999.0,   18.9,   18.7,   18.7,   18.1,   17.6,  999.0,  999.0,  999.0,  999.0,    0.0,  999.0,   -0.0,   -0.0,   -0.1,   -0.0,   -0.0,   -0.1,   -0.1,   -0.3,    0.1,   -0.1,   -0.0,   -0.2,   -0.1,   -0.0,    0.2,    0.0,    0.1,    0.2,    0.0,    0.0,   -0.0,    0.0,   -0.3,   -0.1,   -0.1,    0.2,  999.0,  999.0,  999.0,  999.0,  999.0
2016/12/27 16:30,  999.0,  999.0,   -0.0,    0.1,    0.0,    0.1,    0.0,    0.1,   -0.0,   -0.0,    0.0,   -0.0,    0.1,    0.1,    0.2,    0.0,    0.0,  999.0,   -0.0,    0.0,   -0.1,    0.0,    0.1,    0.0,    0.1,    0.2,   -0.1,    0.0,    0.0,    0.1,   -0.1,   -0.0,  999.0,    0.2,  999.0,    2.1,    1.6,  999.0,  999.0,  999.0,   18.9,   18.8,   18.8,   19.7,  999.0,  999.0,  999.0,  999.0,  999.0,    0.1,   -0.1,   -0.2,   -0.1,   -0.0,   -0.1,   -0.0,   -0.0,    0.0,   -0.1,   -0.0,   -0.1,    0.1,    0.3,    0.1,    0.1,    0.2,   -0.1,    0.1,   -0.1,   -0.3,    0.0,   -0.1,   -0.0,   -0.2,    0.1,  999.0,  999.0,  999.0,  999.0,  999.0
2016/12/27 16:40,  999.0,   -0.1,   -0.1,  999.0,  999.0,   -0.1,   -0.0,   -0.0,   -0.0,    0.0,    0.1,    0.0,  999.0,  999.0,    0.1,    0.1,    0.1,   -0.0,   -0.1,   -0.0,    0.0,    0.0,   -0.0,   -0.0,   -0.1,    0.0,    0.0,   -0.0,    0.0,    0.2,    0.1,   -0.1,    0.2,    0.3,  999.0,  999.0,  999.0,  999.0,  999.0,   16.4,  999.0,   16.8,   17.2,  999.0,  999.0,  999.0,  999.0,  999.0,    0.6,   -0.1,   -0.0,   -0.0,   -0.2,   -0.0,   -0.1,    0.1,   -0.1,    0.1,    0.2,   -0.1,   -0.4,    0.2,    0.2,    0.0,    0.2,   -0.1,   -0.0,   -0.2,    0.2,  999.0,    0.0,  999.0,   -0.0,    0.0,    0.3,  999.0,  999.0,  999.0,  999.0,  999.0
2016/12/27 16:50,  999.0,  999.0,    0.0,  999.0,    0.0,    0.1,    0.0,  999.0,    0.0,    0.1,   -0.0,    0.0,  999.0,   -0.0,   -0.0,    0.0,    0.2,    0.0,   -0.1,   -0.0,   -0.0,   -0.1,   -0.1,   -0.0,    0.0,   -0.0,    0.0,    0.0,    0.1,    0.0,    0.1,    0.7,    0.6,    0.9,    1.5,    0.8,  999.0,  999.0,  999.0,    6.9,    4.1,    4.6,   -0.6,    0.0,    0.7,    0.1,    0.1,    0.0,    0.4,   -0.0,    0.0,   -0.1,   -0.1,   -0.0,    0.1,    0.1,    0.1,    0.0,    0.0,    0.1,   -0.1,   -0.0,   -0.0,   -0.1,    0.1,   -0.2,   -0.1,   -0.2,  999.0,  999.0,    0.2,  999.0,   -0.2,   -0.2,   -0.0,  999.0,  999.0,  999.0,  999.0,  999.0
2016/12/27 17:00,  999.0,   -0.2,   -0.2,  999.0,  999.0,  999.0,    0.0,    0.1,   -0.0,  999.0,   -0.0,    0.0,   -0.1,   -0.0,    0.1,  999.0,   -0.1,   -0.2,   -0.1,   -0.0,    0.0,    0.0,   -0.0,    0.1,  999.0,    0.1,    0.0,    0.1,    0.4,    0.3,    0.4,    0.1,    0.3,    0.8,  999.0,  999.0,  999.0,  999.0,   19.0,   17.0,   18.0,   18.0,   17.8,   20.1,  999.0,  999.0,  999.0,  999.0,  999.0,    0.1,    0.1,   -0.1,    0.1,   -0.1,    0.0,   -0.0,    0.0,   -0.0,    0.0,   -0.1,    0.1,   -0.0,   -0.1,    0.0,    0.1,   -0.0,   -0.2,   -0.2,    0.0,    0.3,    0.3,   -0.3,   -0.1,    0.0,  999.0,  999.0,  999.0,  999.0,  999.0,  999.0
2016/12/27 17:10,  999.0,   -0.3,    0.0,  999.0,  999.0,  999.0,  999.0,  999.0,  999.0,   -0.1,    0.2,    0.2,    0.1,   -0.1,   -0.3,   -0.3,    0.1,  999.0,    0.1,    0.0,    0.1,   -0.0,    0.2,    0.1,    0.1,   -0.0,  999.0,   -0.1,    0.3,    0.1,    0.1,  999.0,  999.0,  999.0,  999.0,  999.0,  999.0,   21.1,   20.2,   19.3,   19.6,   19.8,   19.7,   20.3,  999.0,  999.0,  999.0,  999.0,  999.0,  999.0,   -0.1,   -0.1,    0.1,    0.1,    0.0,   -0.1,   -0.1,    0.1,   -0.0,   -0.1,   -0.1,   -0.1,   -0.1,    0.0,  999.0,    0.1,   -0.1,   -0.0,  999.0,  999.0,   -0.0,    0.1,    0.1,  999.0,  999.0,  999.0,  999.0,  999.0,  999.0,  999.0
2016/12/27 17:20,  999.0,   -0.0,   -0.1,    0.4,    0.0,  999.0,  999.0,    0.1,   -0.1,   -0.1,    0.1,    0.2,    0.1,   -0.0,   -0.0,   -0.2,  999.0,   -0.0,   -0.0,    0.0,   -0.0,    0.1,    0.2,    0.1,   -0.1,    0.1,  999.0,  999.0,  999.0,  999.0,  999.0,  999.0,  999.0,  999.0,   17.6,   18.8,   18.9,   19.1,   18.5,   18.8,   19.0,   19.3,   19.6,   19.5,   18.7,  999.0,  999.0,  999.0,  999.0,  999.0,    0.3,    0.1,    0.0,   -0.1,   -0.1,   -0.2,    0.1,   -0.0,   -0.1,   -0.1,   -0.1,   -0.1,    0.1,   -0.3,   -0.2,   -0.1,   -0.1,    0.3,    0.1,  999.0,   -0.1,    0.4,   -0.2,  999.0,  999.0,  999.0,  999.0,  999.0,  999.0,  999.0
2016/12/27 17:30,  999.0,   -0.1,    0.1,    0.1,  999.0,   -0.1,    0.2,  999.0,  999.0,    0.1,    0.3,    0.2,    0.1,    0.5,    0.1,  999.0,  999.0,    0.2,  999.0,  999.0,    0.2,   -0.0,    0.1,    0.5,    0.1,  999.0,  999.0,  999.0,  999.0,  999.0,  999.0,  999.0,  999.0,  999.0,   19.6,   20.4,   19.0,   20.6,   19.9,   19.3,   18.9,   19.5,   20.3,   20.6,  999.0,  999.0,  999.0,  999.0,  999.0,  999.0,  999.0,   -0.0,   -0.1,    0.2,    0.1,   -0.2,    0.1,    0.0,   -0.1,   -0.0,   -0.2,    0.1,   -0.0,    0.0,    0.3,    0.1,    0.1,    0.2,   -0.1,  999.0,   -0.2,   -0.0,  999.0,   -0.2,  999.0,  999.0,  999.0,  999.0,  999.0,  999.0
2016/12/27 17:40,  999.0,    0.1,    0.0,    0.0,  999.0,    0.1,  999.0,  999.0,  999.0,    0.1,   -0.1,    0.0,    0.3,    0.0,    0.0,  999.0,    0.1,    0.1,  999.0,    0.1,    0.2,    0.3,  999.0,  999.0,  999.0,    0.3,    0.2,  999.0,  999.0,  999.0,  999.0,  999.0,  999.0,   18.7,   19.2,   19.3,   19.2,   19.1,   18.5,   18.5,   18.3,   19.6,   20.4,   19.7,   19.8,   20.9,  999.0,  999.0,  999.0,  999.0,  999.0,    0.1,    0.0,    0.1,   -0.0,    0.1,   -0.0,    0.1,   -0.0,    0.1,    0.2,   -0.0,   -0.1,   -0.1,   -0.3,   -0.1,    0.1,    0.1,   -0.2,  999.0,   -0.1,   -0.1,   -0.0,  999.0,  999.0,  999.0,  999.0,  999.0,  999.0,  999.0
2016/12/27 17:50,  999.0,   -0.1,    0.0,    0.0,   -0.2,  999.0,    0.4,    0.3,    0.2,  999.0,  999.0,  999.0,    0.1,   -0.0,  999.0,    0.1,  999.0,    0.1,    0.0,    0.3,    0.1,    0.1,    0.1,  999.0,  999.0,    0.3,    0.3,    0.2,  999.0,  999.0,  999.0,  999.0,   19.2,   19.0,   19.8,   19.6,   18.9,   18.2,   17.9,   17.0,   16.7,   17.2,   17.9,   18.3,   19.1,   19.0,  999.0,  999.0,  999.0,  999.0,  999.0,  999.0,    0.0,    0.0,    0.1,   -0.0,    0.2,   -0.0,    0.1,    0.0,    0.1,    0.0,   -0.2,    0.1,   -0.2,    0.1,    0.0,   -0.1,   -0.0,  999.0,    0.1,  999.0,  999.0,    0.4,  999.0,  999.0,  999.0,  999.0,  999.0,  999.0
2016/12/27 18:00,  999.0,    0.2,   -0.2,    0.2,    0.2,    0.1,    0.3,    0.2,    0.2,  999.0,   -0.1,    0.2,    0.2,   -0.1,    0.1,    0.1,  999.0,  999.0,  999.0,   -0.2,  999.0,    0.6,    0.2,  999.0,    0.3,    0.8,    1.0,  999.0,  999.0,  999.0,  999.0,  999.0,   17.9,   18.1,   18.7,   18.7,   18.8,   19.0,   18.7,   18.1,   17.6,   18.0,   17.6,   17.3,   19.0,  999.0,  999.0,  999.0,  999.0,  999.0,  999.0,    0.2,   -0.1,   -0.1,    0.1,    0.1,   -0.3,    0.2,   -0.2,   -0.3,   -0.2,    0.2,   -0.0,   -0.2,   -0.0,   -0.2,   -0.1,   -0.1,   -0.5,  999.0,    0.2,  999.0,   -0.1,   -0.4,  999.0,  999.0,  999.0,  999.0,  999.0,  999.0
2016/12/27 18:10,  999.0,   -0.2,    0.0,    0.1,   -0.1,   -0.4,   -0.1,  999.0,  999.0,    0.0,    0.2,    0.2,    0.1,    0.1,    0.2,    0.5,  999.0,   -0.0,   -0.0,    0.1,  999.0,   -0.0,    0.0,    0.1,    0.2,    0.9,    0.6,    0.2,   -0.1,  999.0,  999.0,  999.0,   17.9,   18.2,   18.7,   19.4,   19.5,   12.4,   16.2,    9.3,    8.5,   11.0,    9.7,    4.5,   -0.9,    6.1,   -0.4,   -0.2,    0.2,    0.2,    0.0,    0.2,   -0.0,    0.1,   -0.0,   -0.1,   -0.1,   -0.0,   -0.0,   -0.0,    0.0,   -0.3,   -0.2,   -0.1,   -0.1,   -0.0,    0.0,    0.1,  999.0,  999.0,  999.0,  999.0,   -0.0,   -0.0,  999.0,  999.0,  999.0,  999.0,  999.0,  999.0
2016/12/27 18:20,  999.0,    0.1,   -0.0,    0.2,    0.2,    0.1,    0.3,    0.5,    0.0,  999.0,    0.0,  999.0,    0.1,   -0.1,    0.0,   -0.2,  999.0,  999.0,    0.1,    0.2,    0.2,    0.3,    0.2,    0.3,    0.4,    0.6,    0.7,    0.7,    0.2,    0.1,    0.3,    0.3,    0.3,    0.7,    0.8,    3.3,    2.0,    2.2,    0.2,   -0.5,    0.3,    0.3,    0.4,    0.1,    0.3,    0.1,   -0.2,   -0.2,    0.1,    0.2,   -0.3,   -0.2,   -0.2,    0.1,    0.3,   -0.2,   -0.0,   -0.2,   -0.0,   -0.1,    0.1,    0.1,   -0.1,   -0.1,   -0.2,   -0.0,    0.1,    0.0,    0.3,    0.1,  999.0,  999.0,   -0.2,   -0.3,  999.0,  999.0,  999.0,  999.0,  999.0,  999.0
2016/12/27 18:30,  999.0,    0.2,    0.0,   -0.0,   -0.0,   -0.1,    0.2,    0.0,    0.2,   -0.1,    0.3,    0.2,    0.1,   -0.0,   -0.0,  999.0,   -0.7,   -0.3,   -0.1,   -0.0,    0.0,    0.1,    0.1,   -0.1,    0.0,    0.1,   -0.0,   -0.1,   -0.0,   -0.1,   -0.1,    0.1,    0.3,    0.2,   -0.4,    1.4,    0.7,    1.5,    1.3,    0.5,   -0.0,    0.2,   -0.3,   -0.6,   -0.6,   -0.3,   -0.1,    0.1,    0.2,   -0.1,    0.1,   -0.0,   -0.3,   -0.0,    0.1,    0.1,    0.1,    0.0,    0.2,    0.1,   -0.0,    0.2,    0.2,    0.1,  999.0,    0.1,   -0.1,    0.1,    0.3,   -0.2,  999.0,  999.0,  999.0,  999.0,  999.0,  999.0,  999.0,  999.0,  999.0,  999.0
2016/12/27 18:40,  999.0,    0.1,   -0.0,   -0.1,   -0.0,   -0.0,    0.1,    0.4,    0.2,    0.2,    0.2,    0.1,    0.3,    0.0,   -0.1,   -0.0,   -0.0,    0.0,   -0.2,    0.1,    0.2,    0.1,    0.2,    0.1,    0.0,   -0.1,   -0.3,   -0.2,   -0.1,   -0.2,   -0.0,    0.2,    0.1,    0.2,    0.0,    0.0,   -0.2,   -0.0,    0.1,   -0.3,   -0.2,    0.0,    0.0,    0.1,    0.1,   -0.0,   -0.2,   -0.2,   -0.1,   -0.1,   -0.0,   -0.0,   -0.2,    0.0,   -0.1,   -0.1,   -0.0,   -0.1,   -0.1,    0.2,    0.2,    0.1,   -0.1,   -0.1,    0.2,    0.1,    0.0,    0.1,  999.0,   -0.4,  999.0,   -0.1,   -0.1,   -0.6,  999.0,  999.0,  999.0,  999.0,  999.0,  999.0
2016/12/27 18:50,  999.0,    0.0,    0.1,    0.2,    0.1,   -0.1,    0.2,    0.2,    0.1,    0.0,   -0.1,    0.0,    0.3,    0.2,    0.1,  999.0,  999.0,  999.0,  999.0,   -0.0,    0.1,    0.1,    0.3,    0.4,  999.0,    0.0,    0.1,   -0.1,   -0.1,    0.1,    0.0,    0.1,    0.2,    0.2,   -0.0,   -0.0,   -0.0,   -0.1,    0.2,    0.1,    0.1,   -0.1,   -0.1,   -0.3,   -0.1,    0.1,    0.0,    0.0,   -0.0,    0.2,   -0.2,   -0.1,    0.0,   -0.2,   -0.1,    0.0,   -0.2,    0.1,    0.2,    0.1,    0.0,   -0.1,   -0.2,   -0.2,    0.0,   -0.0,    0.0,    0.1,    0.0,  999.0,    0.1,   -0.0,   -0.1,    0.2,   -0.1,  999.0,  999.0,  999.0,  999.0,  999.0
2016/12/27 19:00,  999.0,   -0.0,   -0.2,   -0.1,  999.0,    0.1,    0.2,    0.2,   -0.1,   -0.0,  999.0,   -0.1,   -0.0,   -0.0,   -0.1,   -0.1,   -0.1,  999.0,  999.0,    0.2,  999.0,    0.4,    0.4,   -0.0,   -0.1,    0.1,    0.4,    0.2,    0.1,   -0.1,    0.0,   -0.0,   -0.1,   -0.0,    0.2,    0.1,   -0.0,    0.1,    0.1,    0.6,    0.4,    0.2,    0.0,    0.1,   -0.0,    0.0,   -0.1,   -0.1,    0.0,   -0.1,    0.0,   -0.0,   -0.1,   -0.2,   -0.0,   -0.1,   -0.2,   -0.1,    0.0,    0.1,   -0.0,   -0.1,   -0.2,    0.1,  999.0,    0.1,    0.1,    0.2,    0.3,  999.0,   -0.1,  999.0,  999.0,  999.0,  999.0,  999.0,  999.0,  999.0,  999.0,  999.0
2016/12/27 19:10,  999.0,    0.1,   -0.1,  999.0,   -0.1,  999.0,  999.0,  999.0,  999.0,   -0.0,  999.0,   -0.1,  999.0,  999.0,  999.0,  999.0,  999.0,  999.0,    0.1,   -0.1,    0.0,    0.3,    0.3,    0.2,    0.2,    0.2,    0.2,    0.3,    0.1,   -0.1,   -0.2,    0.2,    0.2,    0.0,    0.1,   -0.0,   -0.0,   -0.0,    0.3,    0.6,    0.1,   -0.2,    0.0,    0.1,   -0.4,   -0.2,   -0.1,   -0.0,    0.0,    0.2,    0.0,    0.2,    0.3,   -0.1,    0.0,   -0.1,   -0.2,    0.0,    0.0,   -0.0,    0.2,   -0.1,    0.2,   -0.1,  999.0,    0.2,    0.1,    0.1,    0.2,    0.1,    0.1,  999.0,  999.0,   -0.4,  999.0,  999.0,  999.0,  999.0,  999.0,  999.0
2016/12/27 19:20,  999.0,   -0.1,    0.0,   -0.1,   -0.1,   -0.1,  999.0,    0.0,  999.0,  999.0,    0.0,   -0.1,  999.0,   -0.0,    0.1,  999.0,   -0.0,    0.0,    0.1,    0.2,    0.3,    0.2,    0.4,   -0.0,    0.1,    0.0,    0.1,    0.4,    0.5,    0.2,   -0.1,    0.0,   -0.1,    0.1,    0.0,    0.2,    0.1,    0.1,   -0.0,    0.0,   -0.1,   -0.1,    0.0,    0.1,    0.1,    0.1,    0.1,    0.1,   -0.0,    0.1,    0.2,    0.0,    0.2,    0.1,    0.1,   -0.0,   -0.1,   -0.1,   -0.3,   -0.2,   -0.1,   -0.0,   -0.0,  999.0,   -0.0,    0.2,    0.0,   -0.0,    0.3,    0.2,    0.1,   -0.0,   -0.7,   -0.4,  999.0,  999.0,  999.0,  999.0,  999.0,  999.0
2016/12/27 19:30,  999.0,    0.1,    0.1,   -0.0,  999.0,   -0.1,   -0.1,    0.1,    0.3,  999.0,    0.0,   -0.1,   -0.0,   -0.0,    0.1,    0.1,  999.0,  999.0,    0.1,    0.0,    0.2,   -0.0,    0.4,  999.0,    0.1,    0.0,    0.1,    0.2,    0.4,    0.9,    1.3,  999.0,    0.2,   -0.1,    0.1,    0.0,    0.1,    0.1,    0.2,   -0.1,   -0.0,    0.2,    0.0,   -0.0,    0.2,    0.1,   -0.2,   -0.1,    0.1,    0.0,   -0.0,   -0.1,    0.1,    0.1,    0.0,    0.0,   -0.1,    0.1,    0.0,   -0.1,    0.1,    0.2,   -0.2,   -0.3,  999.0,    0.1,   -0.0,   -0.1,   -0.3,  999.0,   -0.4,    0.0,   -0.1,   -0.2,  999.0,  999.0,  999.0,  999.0,  999.0,  999.0
2016/12/27 19:40,  999.0,   -0.1,   -0.3,   -0.0,  999.0,    0.0,    0.4,    0.1,    0.1,   -0.2,    0.0,    0.1,    0.1,    0.1,   -0.0,   -0.1,  999.0,    0.1,   -0.0,  999.0,  999.0,    0.4,    0.5,    0.9,    0.5,   -0.0,   -0.0,    0.0,    0.0,    0.3,    0.6,    0.5,    0.5,    0.1,   -0.2,   -0.1,    0.0,    0.2,   -0.0,    0.1,    0.1,   -0.1,   -0.3,    0.2,    0.2,    0.1,   -0.4,    0.0,    0.1,   -0.0,    0.1,    0.1,    0.1,    0.0,    0.1,    0.0,   -0.0,   -0.0,   -0.2,   -0.0,   -0.1,   -0.1,   -0.1,   -0.1,  999.0,    0.1,    0.0,    0.0,    0.1,    0.1,    0.1,    0.1,  999.0,    0.1,  999.0,  999.0,  999.0,  999.0,  999.0,  999.0
2016/12/27 19:50,  999.0,   -0.0,   -0.0,    0.0,    0.7,    0.6,    0.1,    0.0,  999.0,   -0.2,    0.0,    0.1,    0.0,    0.1,    0.1,    0.0,  999.0,  999.0,   -0.1,    0.0,    0.1,    0.3,    0.5,    0.2,    0.3,    0.4,    0.0,    0.1,    0.2,    0.1,    0.9,    0.3,    0.0,   -0.0,   -0.1,   -0.0,   -0.1,    0.2,    0.5,    0.4,    0.2,    0.1,    0.1,    0.2,    0.1,  999.0,    0.2,    0.2,    0.1,    0.2,    0.0,    0.0,    0.1,    0.0,   -0.0,   -0.1,   -0.1,    0.0,    0.0,    0.2,    0.1,   -0.1,    0.1,   -0.3,   -0.1,    0.0,    0.1,   -0.0,   -0.1,  999.0,    0.0,   -0.4,   -0.2,    0.0,  999.0,  999.0,  999.0,  999.0,  999.0,  999.0
2016/12/27 20:00,  999.0,   -0.1,    0.1,    0.2,    0.1,    0.0,    0.2,    0.2,    0.5,    0.2,    0.5,    0.3,    0.2,    0.2,    0.1,    0.0,    0.0,  999.0,    0.1,    0.1,    0.2,    0.5,    0.6,    0.3,    0.3,    0.4,    0.1,   -0.1,   -0.0,    0.4,    0.5,    0.5,    0.2,   -0.0,    0.0,    0.1,   -0.0,    0.0,    0.3,    0.1,   -0.0,   -0.1,    0.0,    0.1,    0.1,    0.3,  999.0,   -0.1,    0.4,    0.1,    0.0,    0.1,    0.0,    0.3,    0.0,    0.0,    0.1,    0.1,   -0.2,   -0.0,    0.1,   -0.0,   -0.3,   -0.0,    0.1,   -0.1,    0.1,   -0.0,   -0.1,   -0.6,    0.0,  999.0,  999.0,    0.3,  999.0,  999.0,  999.0,  999.0,  999.0,  999.0
2016/12/27 20:10,  999.0,    0.2,    0.1,    0.2,    0.1,   -0.2,   -0.1,  999.0,    0.1,    0.2,    1.0,    0.7,    0.3,    0.3,    0.1,    0.1,    0.2,   -0.1,    0.1,    0.1,    0.2,    0.1,    0.6,    0.7,    0.6,    0.4,    0.8,    0.4,    0.1,   -0.0,    0.0,    0.2,    0.3,    0.2,    0.0,    0.0,   -0.0,    0.3,    0.3,    0.4,   -0.2,    0.2,  999.0,    0.2,    0.2,    0.1,    0.1,   -0.0,   -0.1,   -0.1,   -0.0,    0.2,    0.1,    0.2,    0.0,    0.0,   -0.0,   -0.1,    0.2,   -0.3,   -0.1,   -0.1,   -0.0,    0.1,    0.1,    0.0,   -0.0,    0.1,   -0.0,    0.4,   -0.2,   -0.2,  999.0,  999.0,  999.0,  999.0,  999.0,  999.0,  999.0,  999.0
2016/12/27 20:20,  999.0,    0.0,   -0.1,   -0.1,   -0.1,    0.3,    0.2,    0.2,    0.3,    0.3,    0.2,    0.3,    0.3,    0.2,    0.0,    0.1,    0.2,    0.2,   -0.1,    0.0,    0.1,    0.1,    0.3,    0.3,    0.3,    0.5,    0.3,    0.5,   -0.0,    0.0,   -0.1,    0.0,    0.0,   -0.1,    0.0,   -0.0,    0.1,    0.0,   -0.0,    0.2,   -0.1,    0.1,   -0.0,    0.0,    0.3,   -0.1,   -0.4,    0.2,   -0.1,   -0.1,    0.0,    0.1,   -0.0,    0.1,    0.1,    0.2,   -0.1,    0.1,    0.0,    0.1,   -0.0,   -0.1,    0.1,    0.1,    0.1,    0.1,    0.0,   -0.1,    0.1,    0.1,   -0.1,   -0.0,   -0.2,   -0.4,   -0.1,  999.0,  999.0,  999.0,  999.0,  999.0
2016/12/27 20:30,  999.0,    0.0,    0.1,    0.2,    0.0,   -0.2,  999.0,  999.0,    0.3,   -0.2,   -0.1,    0.3,    0.5,    0.2,    0.0,    0.2,    0.1,    0.1,    0.4,    0.3,    0.2,    0.0,    0.6,    0.4,    0.3,    0.3,   -0.1,  999.0,   -0.2,   -0.1,    0.1,   -0.1,    0.0,    0.2,    0.1,    0.1,    0.0,    0.1,    0.4,   -0.0,   -0.2,   -0.0,   -0.1,    0.3,    0.1,   -0.1,   -0.1,    0.1,    0.2,    0.1,    0.1,   -0.0,   -0.3,   -0.1,   -0.1,   -0.2,   -0.1,   -0.1,    0.0,   -0.1,   -0.1,    0.0,   -0.0,    0.1,  999.0,   -0.1,   -0.2,    0.0,   -0.2,    0.1,    0.0,   -0.0,    0.1,    0.1,  999.0,  999.0,  999.0,  999.0,  999.0,  999.0
2016/12/27 20:40,  999.0,   -0.1,   -0.1,    0.0,    0.3,   -0.1,  999.0,    0.0,    0.1,    0.3,    0.0,    0.0,   -0.0,    0.0,   -0.1,    0.0,   -0.1,    0.1,    0.1,    0.0,    0.2,    0.2,    0.3,    0.4,    0.3,    0.5,    0.4,   -0.2,   -0.1,   -0.1,    0.0,   -0.0,    0.1,   -0.0,    0.2,    0.4,    0.6,    0.9,    0.5,    0.0,   -0.2,   -0.1,   -0.0,    0.0,    0.1,  999.0,  999.0,    0.2,    0.1,    0.1,    0.0,    0.0,    0.1,    0.0,    0.1,    0.0,    0.1,    0.0,   -0.0,    0.1,    0.2,    0.0,   -0.0,  999.0,    0.2,    0.1,   -0.0,    0.1,    0.2,   -0.0,   -0.0,    0.1,   -0.2,  999.0,  999.0,  999.0,  999.0,  999.0,  999.0,  999.0
2016/12/27 20:50,  999.0,    0.2,    0.0,   -0.1,    0.0,   -0.1,   -0.1,    0.1,   -0.1,  999.0,   -0.0,   -0.1,   -0.0,    0.0,  999.0,   -0.0,   -0.0,    0.0,    0.0,    0.0,    0.0,    0.2,    0.1,    0.1,    0.1,    0.3,    0.2,   -0.1,   -0.1,   -0.1,    0.1,    0.2,    0.3,   -0.1,    0.6,    1.2,    0.7,    0.6,    0.6,   -0.1,    0.1,    0.1,    0.4,    0.2,    0.1,    0.1,    0.1,    0.1,   -0.1,    0.0,    0.2,    0.0,   -0.1,    0.1,   -0.0,   -0.1,   -0.1,    0.1,    0.0,    0.1,   -0.0,   -0.2,   -0.0,   -0.1,  999.0,   -0.2,    0.0,   -0.0,   -0.1,  999.0,   -0.0,   -0.1,   -0.3,   -0.1,    0.1,  999.0,  999.0,  999.0,  999.0,  999.0
2016/12/27 21:00,  999.0,  999.0,   -0.1,   -0.1,    0.0,   -0.1,    0.0,   -0.1,    0.0,   -0.0,   -0.0,   -0.0,    0.0,   -0.0,    0.0,   -0.0,   -0.1,   -0.0,    0.0,   -0.0,    0.0,   -0.0,   -0.0,    0.0,   -0.0,    0.0,    0.0,    0.2,    0.0,   -0.1,   -0.1,   -0.1,    0.0,    0.1,    0.4,    0.7,    0.6,    0.5,    0.1,    0.5,   -0.0,    0.1,    0.1,   -0.0,    0.1,   -0.0,    0.1,   -0.0,    0.1,    0.1,    0.2,   -0.0,    0.1,   -0.1,    0.1,   -0.1,    0.0,   -0.1,    0.0,   -0.0,    0.1,   -0.1,   -0.2,  999.0,  999.0,    0.1,    0.1,   -0.1,    0.1,   -0.2,   -0.1,   -0.2,  999.0,    0.0,  999.0,  999.0,  999.0,  999.0,  999.0,  999.0
2016/12/27 21:10,  999.0,  999.0,    0.1,   -0.1,   -0.0,   -0.0,   -0.0,  999.0,    0.1,    0.1,    0.1,  999.0,  999.0,  999.0,   -0.0,    0.0,  999.0,   -0.0,    0.0,    0.0,    0.1,    0.1,    0.0,    0.0,    0.1,   -0.0,    0.0,   -0.2,   -0.0,    0.1,   -0.1,    0.0,    0.2,    0.2,    0.0,   -0.0,    0.0,   -0.2,    0.0,    0.2,    0.1,   -0.1,   -0.0,    0.1,   -0.0,   -0.1,   -0.0,    0.1,   -0.0,   -0.1,    0.3,    0.2,    0.0,   -0.0,    0.1,   -0.2,   -0.0,   -0.1,   -0.2,    0.0,    0.1,   -0.2,   -0.0,    0.4,    0.0,   -0.0,    0.1,   -0.1,  999.0,    0.3,    0.2,  999.0,   -0.2,   -0.2,    0.2,  999.0,  999.0,  999.0,  999.0,  999.0
2016/12/27 21:20,  999.0,  999.0,   -0.1,    0.1,   -0.0,   -0.0,   -0.1,    0.0,    5.2,   -0.1,    0.1,    3.8,    3.9,    2.5,    2.0,    4.3,  999.0,  999.0,    0.1,   -0.0,   -0.1,    4.5,   -0.1,    0.1,    0.2,   -0.1,  999.0,    0.1,    0.1,    0.2,    0.3,   -0.0,   -0.1,   -0.1,   -0.0,   -0.1,   -0.1,    0.1,   -0.0,    0.1,   -0.1,   -0.0,    0.1,    0.0,    0.0,    0.1,    0.1,    0.0,    0.2,    0.3,    0.2,    0.1,    0.0,   -0.0,    0.2,   -0.1,   -0.0,   -0.0,   -0.1,   -0.0,   -0.3,   -0.3,    0.0,   -0.2,    0.0,    0.1,    0.4,    0.4,   -0.1,  999.0,   -0.1,   -0.2,    0.2,   -0.2,  999.0,  999.0,  999.0,  999.0,  999.0,  999.0
2016/12/27 21:30,  999.0,  999.0,    0.0,   -0.0,   -0.1,   -0.0,    0.0,  999.0,  999.0,   -0.2,    0.1,    3.2,   -0.0,    8.3,    5.3,    3.7,   -0.1,   -0.2,    0.0,   -0.0,    0.1,    0.3,    0.4,    0.2,    0.5,    0.2,    0.3,    0.2,    0.0,    0.0,    0.1,    0.3,    0.2,   -0.1,   -0.1,   -0.0,    0.0,    0.1,    0.3,    0.2,   -0.1,    0.2,    0.1,    0.0,    0.2,   -0.0,   -0.1,   -0.1,    0.0,    0.1,    0.1,   -0.1,    0.0,    0.0,   -0.0,   -0.0,    0.0,    0.0,   -0.1,    0.2,   -0.1,   -0.0,    0.1,   -0.1,   -0.0,    0.1,   -0.2,   -0.0,    0.0,    0.0,   -0.3,    0.1,  999.0,  999.0,    0.0,  999.0,  999.0,  999.0,  999.0,  999.0
2016/12/27 21:40,  999.0,    0.1,    0.0,    0.1,    0.1,    0.1,   -0.0,  999.0,  999.0,   -0.1,    0.1,  999.0,   -0.0,    0.0,    0.1,    0.0,  999.0,   -0.0,    0.1,    0.0,    0.2,    0.0,    0.3,   -0.0,   -0.1,    0.0,   -0.1,    0.2,    0.0,   -0.1,   -0.0,  999.0,   -0.0,   -0.0,    0.0,    0.2,    0.0,    0.1,    0.0,    0.1,   -0.1,   -0.2,   -0.0,    0.1,   -0.2,   -0.1,    0.2,    0.1,   -0.3,   -0.1,    0.3,    0.2,    0.1,   -0.1,   -0.1,   -0.1,   -0.0,    0.1,    0.0,    0.1,    0.2,    0.1,    0.0,    0.0,    0.1,   -0.1,   -0.2,  999.0,  999.0,  999.0,    0.1,  999.0,    0.1,   -0.1,   -0.2,  999.0,  999.0,  999.0,  999.0,  999.0
2016/12/27 21:50,  999.0,    0.0,   -0.1,   -0.0,    0.1,   -0.0,    0.0,  999.0,    0.2,    0.0,   -0.0,   -0.0,    0.0,    0.1,    0.2,    0.2,    0.1,    0.1,    0.1,    0.1,   -0.0,    0.0,   -0.0,    0.2,    0.1,    0.0,   -0.0,   -0.0,   -0.0,    0.0,    0.0,   -0.2,    0.0,    0.0,   -0.1,    0.0,    0.1,    0.0,   -0.0,   -0.2,    0.0,   -0.3,   -0.2,    0.0,   -0.1,    0.1,   -0.0,   -0.0,   -0.1,   -0.1,    0.0,    0.0,   -0.1,    0.1,   -0.2,    0.1,   -0.0,   -0.0,   -0.0,    0.0,    0.1,    0.0,   -0.0,    0.0,   -0.1,    0.0,    0.2,   -0.3,   -0.1,   -0.0,   -0.1,    0.1,   -0.1,   -0.0,   -0.0,  999.0,  999.0,  999.0,  999.0,  999.0
2016/12/27 22:00,  999.0,  999.0,   -0.1,   -0.2,   -0.2,  999.0,   -0.0,  999.0,  999.0,  999.0,   -0.0,    0.2,    0.0,    0.0,    0.3,    0.3,  999.0,    0.2,    0.3,    0.2,    0.3,    0.3,    0.6,    0.7,    0.0,    0.0,    0.1,    0.1,    0.1,    0.0,    0.0,    0.1,    0.1,    0.1,    0.4,    0.9,    0.5,    1.3,  999.0,  999.0,  999.0,  999.0,  999.0,  999.0,  999.0,  999.0,  999.0,  999.0,  999.0,  999.0,    0.2,    0.1,   -0.1,    0.3,    0.2,    0.1,    0.0,    0.1,    0.0,   -0.1,   -0.2,   -0.0,   -0.2,   -0.0,    0.3,    0.1,    0.1,  999.0,   -0.0,    0.5,  999.0,   -0.2,   -0.1,    0.1,    0.4,  999.0,  999.0,  999.0,  999.0,  999.0
2016/12/27 22:10,  999.0,  999.0,    0.0,   -0.2,   -0.1,    0.0,    0.1,    0.1,   -0.1,    0.1,    0.1,    0.3,    0.2,    0.1,    0.1,  999.0,  999.0,    0.4,    0.2,    0.2,    0.3,    0.1,    0.3,    0.9,    0.7,    0.0,   -0.0,   -0.1,   -0.0,   -0.0,    0.3,    0.0,    0.0,    0.1,  999.0,  999.0,  999.0,   18.4,  999.0,  999.0,  999.0,  999.0,  999.0,  999.0,  999.0,    7.6,   12.8,   12.3,   -0.2,   -0.5,   -0.3,    0.3,    0.3,    0.1,    0.1,    0.1,    0.2,    0.1,    0.1,   -0.2,   -0.2,   -0.1,    0.3,   -0.2,    0.1,   -0.1,    0.1,    0.1,    0.0,    0.0,    0.1,    0.0,   -0.2,   -0.0,    0.2,  999.0,  999.0,  999.0,  999.0,  999.0
2016/12/27 22:20,  999.0,  999.0,   -0.0,    0.1,   -0.1,    0.1,    0.2,    0.1,    0.2,    0.1,    0.3,    0.2,    0.2,    0.1,  999.0,    0.3,  999.0,    0.1,    0.1,    0.2,    0.5,    0.4,   -0.1,    0.0,   -0.3,    0.2,   -0.0,    0.1,    0.0,   -0.0,    0.5,    0.0,  999.0,  999.0,  999.0,  999.0,   16.3,   16.4,  999.0,  999.0,  999.0,  999.0,  999.0,  999.0,  999.0,  999.0,  999.0,   -0.5,   -0.0,  999.0,    0.2,    0.3,    0.0,   -0.1,   -0.1,   -0.0,   -0.2,    0.1,   -0.2,   -0.1,   -0.1,   -0.1,   -0.1,   -0.2,    0.0,   -0.0,   -0.0,   -0.1,    0.1,   -0.1,    0.1,    0.2,    0.0,    0.1,    0.2,  999.0,  999.0,  999.0,  999.0,  999.0
2016/12/27 22:30,  999.0,  999.0,    0.1,  999.0,    0.2,   -0.1,   -0.1,    0.2,    0.0,    0.1,   -0.1,    0.2,    0.1,    0.2,   -0.3,   -0.2,    0.0,    0.1,    0.1,    0.2,   -0.1,    0.0,    0.1,   -0.2,    0.2,    0.0,    0.1,   -0.0,   -0.0,    0.1,   -0.2,    0.2,    0.2,  999.0,  999.0,  999.0,  999.0,  999.0,  999.0,  999.0,  999.0,  999.0,  999.0,  999.0,  999.0,   -0.4,    0.1,   -0.0,   -0.1,   -0.1,    0.3,    0.3,    0.1,   -0.1,   -0.1,   -0.2,    0.1,    0.0,   -0.1,   -0.0,   -0.0,   -0.2,   -0.2,   -0.2,   -0.4,   -0.2,   -0.3,  999.0,   -0.1,  999.0,  999.0,   -0.0,  999.0,    0.1,   -0.0,  999.0,  999.0,  999.0,  999.0,  999.0
2016/12/27 22:40,  999.0,  999.0,    0.0,    0.1,    0.1,   -0.1,   -0.2,    0.1,   -0.2,    0.0,    0.2,  999.0,    0.0,   -0.0,   -0.1,    0.0,  999.0,   -0.0,    0.0,   -0.0,   -0.0,   -0.0,    0.1,    0.0,    0.0,   -0.1,    0.1,    0.1,   -0.1,    0.3,   -0.1,   -0.1,   -0.0,  999.0,  999.0,  999.0,  999.0,  999.0,  999.0,  999.0,  999.0,  999.0,  999.0,  999.0,  999.0,   -0.4,   -0.1,   -0.1,   -0.0,    0.0,    0.0,    0.1,    0.1,    0.1,    0.0,    0.0,    0.0,   -0.0,   -0.1,    0.2,    0.2,    0.1,   -0.2,   -0.1,   -0.0,   -0.0,  999.0,    0.1,    0.2,    0.1,   -0.1,   -0.0,   -0.2,   -0.0,   -0.1,  999.0,  999.0,  999.0,  999.0,  999.0
2016/12/27 22:50,  999.0,  999.0,    0.1,   -0.0,   -0.1,   -0.0,   -0.0,   -0.1,    0.0,   -0.1,   -0.0,  999.0,   -0.1,   -0.1,   -0.2,   -0.0,  999.0,   -0.0,   -0.1,   -0.0,   -0.1,  999.0,   -0.1,   -0.0,   -0.0,   -0.0,   -0.1,    0.0,    0.1,    0.0,    0.1,    0.0,    0.0,   -0.0,   -0.5,   -1.4,  999.0,  999.0,  999.0,  999.0,   -0.4,  999.0,   -0.5,   -0.1,    0.0,   -0.1,    0.1,   -0.0,   -0.0,   -0.1,    0.1,    0.4,   -0.1,    0.0,    0.2,    0.0,    0.1,   -0.1,   -0.1,    0.1,    0.0,    0.2,    0.1,   -0.0,    0.1,    0.0,    0.2,    0.3,    0.2,    0.3,    0.0,  999.0,    0.1,   -0.1,    0.1,  999.0,  999.0,  999.0,  999.0,  999.0
2016/12/27 23:00,  999.0,  999.0,    0.1,    0.1,    0.1,  999.0,    0.0,   -0.0,   -0.0,    0.1,    0.2,   -0.2,   -0.3,   -0.0,  999.0,    0.3,  999.0,    0.2,    1.0,  999.0,  999.0,    0.6,    0.1,    0.0,   -0.1,    0.1,   -0.0,    0.2,   -0.1,   -0.0,    0.2,    0.0,    0.1,   -0.1,   -0.4,   -1.7,  999.0,  999.0,  999.0,  999.0,  999.0,  999.0,  999.0,   -0.4,  999.0,   -0.1,   -0.1,   -0.0,   -0.0,    0.2,    0.1,    0.0,    0.0,    0.1,   -0.1,   -0.1,   -0.1,   -0.2,    0.0,   -0.1,   -0.1,    0.1,    0.0,    0.0,    0.0,   -0.4,    0.0,    0.3,    0.2,  999.0,  999.0,   -0.1,  999.0,  999.0,  999.0,  999.0,  999.0,  999.0,  999.0,  999.0
2016/12/27 23:10,  999.0,  999.0,  999.0,   -0.2,    0.1,  999.0,  999.0,  999.0,  999.0,   -0.1,  999.0,   -0.2,   -0.1,    0.2,   -0.3,    0.3,    0.0,    0.2,    0.1,    0.2,    0.0,    0.4,    0.2,    0.0,    0.1,    0.1,   -0.0,   -0.0,   -0.1,    0.2,    0.1,    0.0,   -0.1,   -0.1,   -0.0,   -0.5,   -1.4,   -1.0,  999.0,  999.0,  999.0,  999.0,  999.0,  999.0,  999.0,   -0.3,   -0.2,   -0.2,    0.2,    0.0,   -0.1,    0.2,   -0.1,   -0.3,   -0.1,    0.0,    0.3,   -0.1,   -0.2,   -0.1,   -0.1,    0.1,    0.5,  999.0,  999.0,    0.0,  999.0,   -0.1,    0.1,  999.0,  999.0,  999.0,  999.0,  999.0,  999.0,  999.0,  999.0,  999.0,  999.0,  999.0
2016/12/27 23:20,  999.0,  999.0,   -0.1,    0.1,   -0.1,    0.1,   -0.1,  999.0,  999.0,    0.4,    0.6,    0.5,    0.6,    0.4,    0.3,    0.4,    0.3,    0.4,    0.2,    0.3,    0.3,    0.2,    0.2,    0.1,   -0.1,    0.0,   -0.1,    0.0,    0.2,    0.1,   -0.0,    0.1,    0.2,    0.2,   -0.1,    0.0,   -0.3,   -0.1,  999.0,  999.0,  999.0,  999.0,  999.0,   -0.0,   -0.3,   -0.2,   -0.1,   -0.1,    0.1,  999.0,   -0.1,    0.1,    0.0,   -0.0,   -0.0,   -0.2,    0.1,    0.1,   -0.1,   -0.3,  999.0,   -0.3,    0.1,    0.1,   -0.1,   -0.2,    0.0,   -0.1,   -0.0,  999.0,   -0.2,  999.0,  999.0,  999.0,  999.0,  999.0,  999.0,  999.0,  999.0,  999.0
2016/12/27 23:30,  999.0,  999.0,   -0.1,   -0.2,    0.0,    0.1,    0.1,    0.0,    0.0,    0.1,    0.1,    0.1,    0.2,    0.3,    0.3,    0.5,    0.2,  999.0,    0.3,    0.5,    0.2,    0.4,    0.6,    0.1,    0.1,    0.0,    0.1,    0.0,    0.1,    0.1,    0.0,   -0.1,   -0.0,   -0.1,    0.0,   -0.1,   -0.2,    0.0,   -0.7,  999.0,   -1.3,  999.0,    1.0,   -0.5,   -0.9,   -0.5,    0.1,    0.1,    0.2,    0.1,   -0.1,   -0.1,   -0.2,   -0.3,    0.1,   -0.0,   -0.3,   -0.1,    0.0,   -0.0,    0.1,   -0.1,    0.0,   -0.1,  999.0,  999.0,   -0.3,   -0.1,  999.0,  999.0,   -0.2,   -0.0,    0.0,   -0.1,   -0.1,  999.0,  999.0,  999.0,  999.0,  999.0
2016/12/27 23:40,  999.0,  999.0,    0.0,    0.0,    0.2,    0.1,    0.2,    0.1,    0.2,    0.2,    0.2,    0.2,    0.4,    0.1,  999.0,   -0.2,   -0.0,    0.0,    0.1,    0.1,    0.3,    0.3,    0.1,    0.0,  999.0,   -0.0,   -0.0,    0.0,   -0.1,   -0.0,   -0.2,   -0.0,    0.0,    0.1,   -0.0,   -0.1,   -0.2,   -0.3,    0.2,  999.0,  999.0,  999.0,  999.0,  999.0,  999.0,  999.0,   -2.2,  999.0,    0.1,  999.0,    0.3,    0.2,   -0.0,    0.2,    0.2,   -0.1,    0.1,    0.1,   -0.2,    0.0,    0.5,    0.1,    0.4,    0.1,    0.2,    0.4,    0.3,    0.4,    0.1,  999.0,  999.0,  999.0,   -0.0,   -0.1,  999.0,  999.0,  999.0,  999.0,  999.0,  999.0
2016/12/27 23:50,  999.0,  999.0,   -0.1,    0.2,    0.3,    0.1,   -0.1,    0.0,   -0.0,    0.0,    0.0,   -0.1,   -0.1,    0.1,    0.0,    0.2,    0.1,    0.4,    0.2,    0.0,   -0.1,    0.3,    0.4,   -0.0,    0.0,    0.2,    0.2,   -0.1,    0.1,   -0.3,   -0.1,   -0.1,    0.1,    0.1,    0.3,   -0.0,    0.2,   -0.0,   -0.0,    0.1,   -0.6,  999.0,   -0.0,   -0.2,   -0.2,   -0.1,   -0.1,   -0.3,   -0.4,   -0.3,  999.0,   -0.2,   -0.1,   -0.1,   -0.0,   -0.0,   -0.1,   -0.2,   -0.1,    0.1,   -0.2,    0.1,  999.0,  999.0,  999.0,   -0.0,  999.0,  999.0,  999.0,  999.0,    0.2,  999.0,   -0.0,   -0.2,  999.0,  999.0,  999.0,  999.0,  999.0,  999.0
